GFSMW_850_spd_000.txt.gz
Wind_Speed
11 8 8 9 17 15 12 19 24 27 29 32 33 35 37 36 35 36 37 36 36 34 35 36 36 35 35 34 33 32 32 33 31 30 31 31 31 34 36 36 40 41 43
16 17 16 16 11 7 15 20 15 20 24 29 32 33 33 36 35 35 36 36 36 36 37 37 38 38 38 38 37 35 34 34 31 31 29 30 32 37 40 41 41 41 39
16 17 19 20 19 16 12 7 20 13 18 21 25 29 28 30 31 32 32 33 33 34 35 36 38 39 39 39 39 38 36 35 32 31 27 13 20 21 22 24 26 29 33
16 17 19 20 20 20 19 16 11 12 14 15 18 23 27 30 30 29 29 29 28 29 29 31 34 38 40 40 40 39 39 35 37 34 38 41 39 25 21 26 27 26 31
14 17 17 17 19 19 19 17 16 12 2 14 17 20 23 26 27 27 27 28 28 29 34 34 32 33 38 40 41 39 38 39 39 40 38 38 43 47 42 35 33 33 36
10 14 14 14 16 18 19 20 19 19 16 12 8 7 13 19 22 24 26 27 27 25 29 32 34 34 33 38 40 41 42 44 43 42 42 41 37 42 38 38 45 37 38
7 8 10 12 13 15 16 17 17 18 18 17 16 14 13 13 15 17 19 21 22 22 24 27 30 32 32 33 37 40 42 45 46 46 47 46 47 47 42 42 47 36 40
6 5 8 10 12 13 15 16 17 18 18 19 19 19 18 19 18 18 18 19 20 21 21 23 24 29 32 32 31 36 40 43 46 47 50 51 50 47 43 44 38 37 37
4 5 6 7 8 10 13 15 16 17 18 20 20 21 22 22 23 23 23 23 23 22 21 22 24 25 28 30 32 35 37 41 45 48 49 51 51 48 48 47 45 43 38
4 2 3 5 7 10 13 14 16 16 17 19 19 20 22 23 22 21 23 24 24 24 25 24 23 23 24 26 28 32 37 40 44 47 48 49 50 49 48 49 45 44 45
1 1 2 6 9 8 10 12 13 15 18 18 20 18 18 16 18 19 21 23 27 27 28 29 29 29 30 28 26 27 33 37 40 44 46 48 47 47 46 47 45 46 45
6 3 1 3 6 10 9 8 9 13 16 20 22 23 22 22 23 24 26 27 30 31 31 31 30 32 32 33 33 33 33 33 33 38 41 44 45 47 47 48 50 49 47
6 3 0 2 5 8 11 14 17 19 20 21 21 21 23 26 27 28 29 32 33 34 34 34 34 33 32 31 31 33 36 35 33 32 32 35 40 44 46 48 53 51 49
5 1 0 4 8 11 13 16 20 19 19 20 21 22 23 25 26 29 33 37 37 38 37 37 36 35 35 33 31 30 34 35 37 38 38 37 36 40 44 46 48 52 49
5 2 5 7 10 12 14 17 16 18 19 21 22 22 24 27 30 33 35 35 35 35 36 37 36 34 32 31 31 35 37 38 38 38 38 38 38 37 38 44 48 46 48
4 3 5 9 10 11 15 20 20 22 23 24 26 23 25 28 30 31 31 29 30 31 34 33 33 34 33 34 35 30 36 37 39 42 41 37 37 37 35 36 42 47 51
4 2 5 8 13 18 19 20 23 24 23 24 26 25 30 31 30 30 30 29 30 32 28 31 30 32 33 31 29 31 34 36 40 40 40 40 37 38 36 37 38 43 44
3 2 9 15 17 18 18 20 22 23 23 23 23 28 30 30 31 31 32 32 33 31 33 31 32 33 32 28 27 30 34 38 39 39 38 35 36 35 35 36 42 40 43
3 8 11 13 13 11 15 20 21 19 20 20 26 28 30 32 33 34 35 36 33 33 34 32 32 31 29 28 29 32 35 37 38 33 33 34 38 40 35 38 38 43 41
7 10 12 12 11 14 16 16 16 19 20 26 29 30 32 33 34 34 37 36 33 38 34 36 31 30 29 29 31 34 33 38 39 43 44 41 38 36 38 35 36 42 46
8 11 13 11 13 13 15 18 21 23 26 30 32 34 34 35 35 35 35 35 40 35 38 36 32 30 31 33 34 35 33 32 41 46 48 47 42 41 38 38 36 38 42
11 13 11 11 12 15 20 24 27 29 31 34 35 35 35 35 35 33 34 37 36 36 34 34 33 32 36 40 40 37 33 34 42 45 48 47 46 44 41 40 38 34 34
15 13 14 14 17 18 22 27 29 30 31 32 33 34 35 36 34 34 37 35 32 34 32 33 34 40 45 42 41 39 40 44 44 43 46 46 46 42 39 39 36 31 33
11 13 15 18 20 22 24 25 27 28 30 32 34 36 37 37 39 39 34 35 33 32 33 36 39 41 42 43 40 38 44 47 45 44 45 42 40 38 36 34 30 30 28
12 14 17 19 22 24 26 26 27 28 30 33 36 37 38 39 40 39 37 31 30 31 35 36 37 39 40 41 40 39 44 44 41 39 37 39 42 40 36 33 30 29 24
14 16 18 21 24 26 27 27 27 28 30 33 35 37 37 37 39 37 38 37 33 33 32 33 30 33 34 38 38 42 41 38 34 32 31 39 40 38 35 31 28 24 22

GFSMW_850_spd_003.txt.gz
Wind_Speed
11 9 8 9 6 10 9 16 23 29 30 28 28 28 31 32 32 34 35 36 36 37 37 37 38 39 38 38 39 38 38 39 38 34 38 37 38 41 42 42 42 43 43
13 15 16 16 15 12 7 9 12 9 19 30 30 29 29 31 31 31 33 34 35 35 36 36 38 39 40 40 41 41 41 43 41 39 37 32 37 43 41 38 39 42 41
13 14 16 17 16 17 17 13 6 11 8 9 15 26 28 28 28 31 31 31 32 32 32 32 33 35 37 40 42 42 42 44 43 41 32 14 18 22 27 22 24 25 30
12 13 16 17 17 16 15 16 14 6 8 8 8 9 18 23 25 27 28 28 27 29 29 30 31 30 32 35 38 42 42 41 44 42 45 45 43 28 26 31 25 24 31
13 14 13 14 14 14 14 14 13 12 9 4 12 15 16 19 22 20 22 22 22 21 24 26 27 30 30 32 33 36 38 40 42 44 44 42 44 49 45 37 45 38 41
11 11 11 10 12 12 12 13 14 15 14 14 12 11 10 11 13 13 14 16 16 16 15 17 21 25 31 32 31 31 32 38 42 45 45 46 37 39 39 40 40 42 47
8 8 8 8 8 10 11 11 12 13 14 15 16 18 18 18 19 19 19 19 18 18 17 16 18 21 24 28 31 34 33 33 37 42 48 49 51 51 48 45 46 42 41
6 5 5 5 7 10 11 12 13 13 14 15 15 15 15 16 16 16 17 16 17 17 17 16 15 16 20 23 26 29 33 36 38 40 41 45 49 50 51 46 43 42 41
4 3 3 4 6 8 11 13 14 14 15 15 16 17 17 18 19 19 19 20 21 23 24 24 24 24 22 19 20 24 28 32 36 38 41 43 45 47 48 49 48 43 37
9 4 2 3 5 8 9 7 8 10 13 16 18 19 18 19 19 21 22 23 23 24 25 26 26 26 26 27 28 29 29 29 31 34 38 39 42 44 46 46 47 49 48
9 4 1 3 4 4 1 4 8 13 17 19 19 20 21 23 24 25 24 24 26 29 31 31 32 31 31 30 29 29 30 32 32 32 32 32 32 36 41 44 47 47 48
8 4 4 3 2 3 2 7 13 17 19 19 19 21 22 24 25 25 26 30 35 37 38 37 35 35 35 33 32 31 31 32 31 29 29 31 34 37 38 40 43 45 48
8 8 8 6 4 3 7 12 16 19 19 21 22 23 24 26 27 28 30 33 36 38 38 37 37 38 36 34 33 32 31 34 37 35 34 34 34 37 40 40 41 41 45
11 9 6 3 3 7 10 14 18 20 20 20 23 25 26 29 30 32 35 36 34 33 33 34 36 36 36 37 34 33 38 36 34 34 34 35 35 35 37 38 39 40 42
15 10 6 2 3 9 13 17 20 20 22 25 26 27 28 29 31 32 32 32 31 31 32 34 32 33 34 34 38 36 35 35 33 36 39 40 38 36 35 35 37 38 39
14 10 5 1 7 12 15 17 19 22 23 25 26 27 28 30 31 32 32 32 32 32 33 29 31 31 30 35 30 27 32 33 36 40 42 39 39 37 32 34 36 36 39
14 9 3 3 8 11 15 18 20 23 24 24 24 26 29 32 32 33 33 33 34 35 32 30 35 31 34 29 27 26 28 34 37 37 37 34 33 38 35 39 35 36 40
11 6 1 7 12 15 16 18 20 20 20 23 25 28 30 32 32 33 33 34 34 34 34 36 33 35 35 27 29 25 30 35 36 36 33 35 40 36 36 34 39 40 40
9 3 6 12 15 17 19 19 17 19 21 23 26 28 29 31 31 32 33 33 34 34 35 33 35 33 32 29 24 30 34 41 40 33 36 40 39 38 40 36 41 45 45
5 4 10 20 21 18 16 15 18 19 22 24 26 27 27 28 30 31 32 32 33 35 33 32 32 29 30 31 35 37 43 40 37 36 43 42 40 42 41 43 46 50 47
6 13 19 23 15 13 14 17 19 22 23 25 26 27 28 30 31 33 33 34 34 33 33 32 27 27 30 35 39 35 34 37 36 38 44 47 45 42 40 42 40 42 41
14 18 19 12 11 13 17 19 22 23 24 26 27 29 30 31 33 34 36 36 35 34 33 32 30 33 34 38 36 33 33 34 37 39 44 49 45 41 43 40 38 40 38
17 21 13 11 12 15 19 22 24 24 26 28 30 31 33 34 34 36 37 37 36 35 33 31 35 35 38 38 37 34 35 37 39 41 45 45 41 37 42 37 36 35 34
19 11 11 13 17 19 21 23 25 25 27 29 32 34 36 37 36 36 36 37 36 35 32 35 36 38 40 39 37 38 43 43 43 47 43 37 31 33 38 40 37 36 33
9 10 14 17 19 21 23 24 25 26 29 31 34 36 37 37 38 37 36 36 35 29 33 35 36 37 36 37 37 37 40 39 41 40 35 31 31 36 40 43 40 39 33
10 13 15 19 21 23 24 25 25 26 29 32 33 34 36 37 39 38 40 37 35 32 30 29 27 31 31 33 36 37 36 35 36 33 30 31 32 36 39 41 44 39 32

GFSMW_850_spd_006.txt.gz
Wind_Speed
10 10 10 10 8 4 8 7 11 19 26 27 28 27 26 26 26 26 27 27 29 30 32 34 34 34 36 37 37 38 39 41 42 43 46 47 46 47 47 48 48 48 48
10 12 13 14 16 16 14 10 6 10 11 11 22 28 30 30 28 26 26 27 28 27 28 29 30 30 31 32 33 34 37 39 39 41 39 31 38 45 44 38 30 31 32
12 12 13 14 14 16 17 16 14 9 8 8 7 12 20 26 25 23 24 24 24 25 25 26 27 28 31 31 31 32 34 37 36 38 36 17 19 30 34 32 29 36 38
9 10 12 13 15 17 16 15 14 10 6 5 4 4 7 12 14 18 19 20 21 23 23 22 23 24 26 29 29 31 33 35 38 35 39 44 45 30 31 39 37 34 42
9 10 12 13 14 14 14 14 13 13 14 13 13 10 8 9 10 10 10 11 11 12 13 15 17 18 19 24 27 31 35 37 39 39 40 42 44 46 44 35 44 42 42
9 9 9 9 10 11 11 12 12 14 13 12 12 13 13 12 11 12 12 12 12 12 12 13 16 18 19 20 22 26 29 31 35 38 41 41 35 35 36 38 40 42 50
10 8 7 6 7 8 9 11 11 12 12 13 14 14 14 14 14 15 16 18 20 20 21 21 20 20 19 20 20 22 25 29 33 35 36 39 42 42 42 44 43 40 42
9 6 5 5 6 7 7 7 8 8 10 12 13 12 13 13 14 15 18 20 21 22 23 24 24 25 25 27 28 28 28 28 29 31 33 34 36 38 40 42 41 40 43
10 7 5 4 6 4 4 4 6 7 9 12 13 14 14 16 18 19 20 21 21 23 25 26 28 29 29 28 28 29 30 31 33 35 35 34 34 33 33 36 39 39 44
12 8 6 6 5 2 0 0 3 8 11 14 15 16 17 19 21 22 24 24 25 28 32 34 35 34 32 31 31 31 31 31 30 29 29 30 31 31 32 34 35 37 40
13 9 7 8 7 6 4 1 6 11 14 15 16 18 20 22 24 25 27 29 32 34 37 37 36 35 35 34 33 31 31 30 29 29 34 34 33 35 36 37 39 41 40
13 11 10 10 9 7 4 7 11 13 15 17 18 20 23 25 26 27 29 31 33 34 34 34 35 36 36 34 33 33 28 31 37 38 35 32 30 31 34 37 39 41 42
15 13 13 12 10 6 6 10 13 16 18 19 21 22 24 25 27 29 30 31 31 31 32 32 33 33 33 34 34 29 33 37 36 32 27 30 33 38 39 37 37 40 42
17 17 15 12 8 5 7 10 14 17 20 22 24 25 25 25 26 27 29 31 31 32 33 33 33 32 33 33 32 35 36 38 34 29 30 35 36 37 35 34 34 35 37
20 18 15 11 5 5 7 12 16 20 21 22 22 21 22 25 27 29 30 30 31 31 32 34 34 33 33 33 33 36 39 38 34 34 36 38 37 35 26 33 36 35 40
21 17 13 9 8 6 10 15 19 21 21 20 20 22 25 27 28 29 29 29 30 30 31 32 33 35 35 32 33 35 38 31 32 38 40 39 40 34 35 35 33 33 33
21 18 14 9 4 9 14 17 18 19 17 18 20 22 25 26 27 28 29 29 31 32 33 33 33 33 33 32 30 33 28 35 37 40 44 43 38 37 40 39 39 41 36
20 15 8 4 8 14 15 17 17 15 18 21 23 24 25 27 28 29 30 32 32 34 34 34 33 34 33 28 29 29 41 45 45 41 45 38 37 42 38 41 45 45 44
15 10 4 7 13 17 19 17 15 18 21 23 24 25 26 28 29 31 32 32 34 35 35 33 33 31 28 28 32 38 42 41 40 38 34 32 38 38 36 40 44 44 50
9 4 8 11 18 19 17 16 18 21 22 24 24 25 26 27 29 30 32 34 34 35 34 35 31 29 27 33 34 33 35 37 37 37 38 36 36 39 40 40 40 45 46
6 8 12 18 24 21 17 18 20 22 23 24 25 26 26 28 30 32 32 34 35 36 36 36 34 30 30 35 32 32 32 34 36 37 38 41 44 43 42 38 36 37 41
9 12 15 21 22 15 17 18 20 22 23 24 26 27 29 30 31 32 34 35 36 36 37 36 34 33 34 34 31 31 30 32 37 38 41 43 44 39 37 33 34 36 38
12 12 21 18 12 14 16 19 21 23 25 26 28 30 31 31 32 33 35 36 36 35 36 32 34 37 39 36 35 32 34 37 37 37 38 40 36 33 33 31 33 36 40
12 16 13 10 13 15 16 19 22 24 26 29 31 32 33 34 33 34 35 35 34 33 31 33 35 36 37 37 36 37 41 39 39 38 43 36 33 32 32 34 37 40 39
12 9 9 13 15 17 18 19 21 24 27 30 32 33 33 33 35 37 37 35 33 26 30 33 34 35 36 36 34 36 36 36 35 38 37 36 38 38 39 37 40 40 42
7 9 12 15 17 19 20 22 22 25 28 32 32 31 32 34 38 39 40 36 32 30 27 28 27 30 29 30 34 33 33 31 35 35 31 37 38 36 38 39 42 43 43

GFSMW_850_spd_009.txt.gz
Wind_Speed
10 10 11 11 12 11 8 7 8 8 8 12 20 23 25 25 24 25 27 27 26 26 28 30 29 28 30 30 32 34 35 35 34 37 38 39 41 42 43 41 40 40 39
11 12 13 14 16 16 15 12 10 9 8 4 6 14 19 21 20 21 20 19 21 24 26 26 27 28 30 30 30 32 35 36 30 35 34 28 32 35 36 36 36 35 32
13 14 14 16 16 17 18 17 16 13 12 10 7 4 7 9 12 13 14 15 16 17 18 20 21 22 24 27 27 28 30 35 34 37 35 20 19 30 36 39 40 41 40
12 14 15 16 16 17 16 14 13 14 14 12 9 7 7 7 8 10 10 10 10 11 12 14 16 17 19 21 21 22 25 29 34 33 36 38 40 28 31 32 33 40 42
11 14 14 14 14 13 12 12 11 12 13 13 13 12 11 11 9 8 8 9 9 11 13 14 16 18 19 20 21 23 23 25 30 33 37 37 39 42 41 36 32 34 41
13 12 12 11 10 9 8 9 10 11 10 10 10 10 10 9 9 11 13 15 17 19 20 21 21 22 23 24 24 24 25 26 27 28 29 30 32 33 33 33 35 35 37
13 12 10 8 7 6 7 7 8 8 9 10 11 12 12 12 14 16 19 21 24 25 26 26 26 27 27 29 30 30 29 28 29 29 30 32 33 33 35 35 40 37 41
13 11 9 6 4 3 3 5 7 8 9 11 13 13 13 14 16 18 20 22 23 24 26 28 29 30 31 32 31 32 32 32 32 32 31 31 30 29 29 31 35 38 38
14 12 9 6 4 2 1 4 6 7 10 12 13 14 15 17 20 21 23 25 27 29 31 33 34 35 36 35 34 34 33 32 32 31 30 29 32 33 31 31 30 32 38
14 12 10 8 5 3 1 2 3 8 11 13 14 16 17 19 22 24 27 29 31 32 33 34 34 34 34 34 33 33 33 31 29 30 34 35 34 33 32 31 33 34 35
15 13 12 10 8 6 4 4 6 9 12 14 16 18 21 24 26 28 29 30 30 31 32 33 34 34 34 34 33 33 31 27 31 36 36 34 29 27 30 33 36 39 36
14 14 13 11 10 9 7 6 7 11 13 15 18 22 25 27 28 27 28 30 32 32 33 33 33 34 34 33 33 33 30 34 38 37 34 29 29 31 33 34 37 37 36
17 16 15 14 13 10 6 6 10 13 16 20 23 26 27 26 26 28 29 30 30 30 30 31 33 34 34 34 33 31 34 37 39 37 30 28 32 31 35 34 30 30 37
18 18 18 16 12 9 7 7 10 14 18 22 24 24 23 24 26 26 26 27 28 29 31 32 33 35 36 36 35 35 35 37 37 30 27 31 31 34 37 33 31 38 40
20 20 18 15 12 6 4 8 13 17 21 23 22 22 23 25 25 26 27 27 28 30 31 33 34 34 34 34 35 35 35 35 36 36 38 39 40 41 37 30 39 41 38
20 18 16 14 7 3 6 11 17 22 24 22 21 23 24 25 25 26 27 28 30 31 33 34 35 36 35 34 32 31 30 36 41 46 47 45 47 44 36 38 39 34 32
19 19 16 10 4 3 10 18 23 24 21 20 21 23 24 25 26 27 29 31 33 35 36 36 36 36 36 34 31 30 33 41 44 43 44 44 39 36 35 39 38 40 38
19 17 12 7 3 8 17 21 21 20 19 20 22 23 24 26 28 30 31 33 34 36 36 37 36 36 36 33 30 32 36 38 39 39 37 38 38 38 36 40 43 44 49
15 13 10 6 7 14 19 22 20 18 19 21 23 24 26 28 30 32 33 33 35 36 36 36 36 36 36 32 32 33 35 37 38 37 38 37 38 37 38 42 46 49 47
11 8 7 8 12 14 17 16 17 19 21 23 24 24 26 28 30 31 33 33 33 35 36 37 36 35 35 35 31 31 32 36 37 39 39 38 37 39 39 43 45 44 39
8 10 8 10 11 15 16 16 18 21 22 23 24 25 26 29 30 31 31 33 35 36 37 38 38 37 35 36 32 30 32 35 38 42 42 42 39 38 43 38 39 37 37
10 8 9 11 16 15 16 17 19 21 22 24 25 27 29 30 31 31 34 35 36 36 37 38 39 38 38 37 32 31 31 33 38 39 42 39 41 42 38 38 35 36 34
12 11 11 15 13 14 16 18 20 22 24 26 28 29 31 32 32 33 35 36 36 35 36 35 36 38 40 39 35 33 32 36 37 40 35 40 41 37 39 35 33 30 33
12 13 15 14 12 14 16 18 20 22 25 28 30 32 33 34 34 34 36 36 35 35 32 33 35 38 39 37 37 38 40 39 42 35 38 45 39 34 37 35 34 33 34
13 14 11 11 13 15 17 18 21 24 27 29 32 34 35 35 36 37 37 36 34 26 29 32 34 35 36 36 34 35 38 37 36 36 42 46 37 41 39 39 38 38 40
12 10 11 13 15 17 18 19 21 24 28 32 34 33 34 35 36 39 41 37 32 28 28 27 27 30 30 32 34 34 33 35 33 37 38 39 37 37 39 41 41 42 44

GFSMW_850_spd_012.txt.gz
Wind_Speed
11 11 11 11 12 13 11 14 14 13 8 4 5 9 13 14 15 17 19 19 19 19 20 23 25 25 27 29 29 31 33 33 32 36 37 38 39 38 37 38 35 38 38
12 12 13 13 14 15 16 15 15 14 12 9 7 6 7 7 8 9 11 12 12 14 15 18 19 21 23 24 24 25 26 29 27 32 34 27 29 33 30 33 38 38 36
14 15 15 15 14 16 16 16 17 16 15 14 10 8 6 5 3 7 7 9 11 12 14 15 17 18 20 21 22 22 23 26 26 26 29 20 24 35 36 33 41 40 37
14 16 16 15 14 15 15 14 14 14 15 14 14 12 11 11 12 11 10 10 11 12 14 15 17 19 20 21 22 23 24 24 25 25 26 30 35 33 36 30 27 34 40
14 16 16 14 14 12 11 12 12 12 13 13 14 13 13 12 10 8 10 13 15 17 19 20 22 23 24 25 26 27 27 27 28 27 28 30 32 32 30 38 33 37 38
17 16 15 13 11 10 9 9 10 12 11 11 12 13 12 12 13 15 17 20 21 23 25 26 27 28 28 29 30 30 30 31 31 30 30 29 28 30 31 33 36 37 38
18 16 14 12 10 8 7 8 9 10 11 12 12 13 14 14 16 18 21 24 27 30 32 33 33 34 34 33 33 33 32 32 31 31 31 30 29 28 29 31 34 32 37
18 16 13 10 8 6 5 6 8 9 10 12 13 13 14 16 19 21 24 27 29 31 32 32 33 33 33 33 34 34 32 31 29 28 27 29 32 32 31 29 29 35 35
20 16 13 9 6 4 4 4 6 7 9 12 13 14 16 19 23 26 28 29 30 30 30 31 31 32 32 33 33 34 33 32 30 28 30 33 34 32 28 25 26 27 29
19 16 13 9 7 5 3 1 2 6 9 11 13 16 19 22 25 26 27 27 28 29 30 30 30 31 31 32 33 34 34 32 31 34 36 35 33 29 26 27 28 28 28
18 16 13 11 8 7 4 2 2 6 9 12 15 18 22 24 25 26 26 27 27 28 29 30 30 31 32 33 33 33 33 34 35 36 36 33 27 26 29 28 31 33 29
16 16 14 12 11 8 5 2 3 6 10 13 17 22 24 25 25 25 26 27 28 27 28 29 31 32 34 35 36 36 36 36 37 37 33 29 28 31 33 34 38 37 26
17 17 16 14 12 9 5 3 5 9 12 18 23 25 24 24 25 25 26 25 26 27 29 31 34 35 37 37 37 37 39 38 37 35 35 37 37 39 41 42 41 32 29
17 17 17 15 12 8 5 4 6 10 17 23 24 23 23 25 25 25 25 26 28 30 32 33 35 36 37 37 37 38 39 39 36 39 42 43 41 40 40 37 36 32 39
17 18 17 15 12 8 4 4 7 15 22 23 23 23 24 25 25 25 27 28 29 31 33 35 36 37 38 38 38 37 37 37 40 42 44 44 43 36 30 34 36 36 38
13 15 16 14 11 8 5 5 12 20 25 23 24 25 25 25 25 26 28 30 32 34 36 38 39 40 39 38 36 32 34 35 40 42 42 40 38 35 36 35 35 35 38
9 15 16 13 11 7 3 10 17 21 21 24 24 24 24 25 26 28 30 33 35 38 38 39 39 39 38 37 34 31 31 36 37 38 38 39 39 38 39 41 40 41 38
10 14 15 13 9 4 7 13 15 18 20 21 24 24 25 26 28 30 33 35 37 38 38 38 37 37 38 36 33 30 33 35 35 37 38 38 40 41 39 42 44 44 46
9 12 11 9 6 6 9 14 18 17 20 21 22 23 25 27 30 32 34 35 36 37 37 38 38 38 39 36 30 32 34 35 38 38 39 36 38 39 39 41 47 49 47
7 9 9 8 6 7 14 18 18 18 19 20 22 23 25 28 31 32 34 34 34 37 39 40 39 38 38 36 31 31 33 36 39 41 41 37 37 38 37 44 44 41 48
8 10 9 5 7 11 17 17 15 17 20 21 22 24 26 29 31 33 32 34 37 39 39 42 42 39 35 35 31 31 32 34 38 41 43 44 38 35 43 42 39 39 40
7 7 6 8 11 14 14 13 15 18 20 22 24 26 28 30 31 32 34 36 38 40 42 42 42 38 34 35 32 31 30 32 36 42 45 46 32 41 43 36 36 37 34
8 8 9 9 11 11 14 15 17 20 22 25 27 28 30 31 31 34 36 39 39 39 39 37 36 36 37 39 35 32 33 34 37 40 39 38 37 43 40 36 35 34 33
9 9 9 10 11 12 14 17 19 22 24 27 28 30 32 35 35 35 36 38 38 36 33 32 35 39 39 38 38 38 39 39 40 41 37 39 43 43 36 39 42 39 35
8 10 11 10 11 13 16 17 20 23 25 27 29 33 35 36 37 37 37 36 34 27 29 32 34 36 37 37 34 35 37 39 38 39 39 41 41 42 41 42 42 42 41
9 10 10 11 12 15 17 18 21 23 26 30 33 34 36 37 38 39 41 37 31 26 27 27 26 30 30 31 34 34 35 34 38 40 34 34 36 38 39 41 43 43 42

GFSMW_850_spd_015.txt.gz
Wind_Speed
9 10 11 12 12 13 13 16 17 17 13 10 7 4 2 2 3 5 7 9 10 11 12 13 15 16 18 19 21 23 25 26 26 30 34 34 35 27 31 25 27 36 38
13 13 14 15 15 16 18 18 19 17 15 13 11 10 9 9 9 8 7 8 9 10 11 13 14 16 17 18 20 22 24 25 24 24 29 21 28 24 21 35 38 32 37
17 15 15 16 15 16 17 17 17 17 18 17 14 12 11 11 10 10 10 10 10 11 12 14 16 18 20 22 23 24 25 27 28 24 18 16 17 37 34 30 34 29 31
18 16 16 15 14 16 15 15 15 16 17 15 13 11 12 11 12 10 10 9 11 14 16 19 21 23 25 26 27 27 28 29 30 30 25 27 31 23 33 24 29 31 27
19 17 15 15 15 13 12 13 13 14 14 13 13 12 12 12 9 9 10 13 17 20 22 25 27 28 28 28 28 28 27 27 28 27 27 29 29 26 25 40 29 33 29
21 18 16 14 13 12 11 10 11 13 12 11 12 12 11 11 11 14 17 21 24 28 30 31 31 31 31 30 30 29 28 27 27 27 26 24 21 22 25 33 41 39 39
24 20 17 15 13 11 9 9 9 11 11 11 11 12 12 13 16 19 22 25 28 30 30 30 30 30 29 28 28 28 28 28 28 26 26 25 24 29 27 29 34 34 38
23 20 17 14 12 11 9 7 8 9 8 9 11 11 12 15 18 21 25 26 27 28 28 28 27 27 27 27 28 29 29 29 28 28 28 30 31 30 27 26 29 36 34
25 21 18 15 14 11 9 6 6 6 6 8 9 11 14 18 22 24 25 26 26 27 26 25 24 24 25 27 29 31 32 32 33 33 33 33 32 28 26 25 25 27 28
24 22 19 17 15 11 8 6 4 3 4 7 9 12 17 20 23 24 25 25 24 23 22 23 24 26 28 30 32 33 34 34 35 33 34 32 30 28 26 26 28 25 26
24 22 19 17 15 12 9 6 2 2 3 6 10 15 18 21 23 24 23 22 22 22 23 25 26 28 31 33 34 35 36 37 35 34 33 29 23 34 35 32 30 32 32
22 20 19 18 16 12 9 6 2 1 4 8 14 18 20 22 22 21 21 21 21 22 24 26 29 31 33 35 36 37 36 35 34 33 26 28 31 35 30 31 30 31 28
19 20 20 18 15 13 9 6 3 2 7 13 18 21 23 22 21 21 21 22 23 24 26 29 32 34 35 36 36 36 36 34 33 30 30 35 33 33 32 30 31 28 33
20 20 20 18 16 13 10 6 2 4 11 16 21 24 24 22 21 21 21 22 24 27 29 31 33 34 36 36 36 36 35 34 33 31 34 32 30 30 32 32 32 34 36
18 20 20 19 17 14 10 5 1 8 14 18 20 22 20 21 21 21 22 24 27 29 31 34 35 36 36 36 36 33 33 34 35 36 34 32 31 30 30 32 38 37 38
14 17 19 19 18 13 8 4 4 10 15 17 18 18 21 21 21 22 25 27 29 32 34 36 37 37 36 35 34 33 32 31 32 35 34 32 33 31 32 35 34 34 38
9 15 18 18 15 11 8 4 7 12 16 16 17 18 20 21 22 24 27 30 33 36 37 36 36 37 36 36 35 30 28 31 31 31 34 37 33 34 37 36 36 37 36
4 11 16 16 13 11 7 6 10 14 15 17 18 18 20 22 24 27 29 32 35 37 37 37 36 38 38 36 32 28 29 32 30 31 32 33 35 38 35 39 36 42 51
2 7 12 13 12 9 5 7 12 16 16 17 17 19 22 24 27 29 32 34 36 37 38 38 39 39 39 35 30 29 32 34 33 33 34 31 39 37 36 36 40 48 48
2 8 12 12 10 6 6 10 14 16 16 16 18 20 23 25 28 31 33 34 36 38 39 40 39 37 37 34 28 29 32 36 37 36 32 35 36 37 30 38 44 46 46
6 9 10 9 7 6 9 12 14 15 16 17 19 20 23 27 29 32 33 35 37 39 40 41 39 37 33 31 29 30 32 34 38 41 40 40 39 30 36 41 42 38 41
9 10 10 8 7 8 10 12 13 15 16 18 20 23 25 28 31 33 34 35 38 39 40 41 39 35 31 31 30 30 29 31 36 39 43 43 40 42 41 40 36 36 36
10 10 9 7 6 10 12 13 14 15 17 20 23 25 28 31 32 34 35 37 37 37 38 36 35 35 38 35 31 30 31 33 36 39 36 38 43 40 38 40 37 33 35
10 8 7 7 8 11 12 11 13 16 19 22 25 28 32 34 33 33 34 35 35 34 31 32 33 36 37 36 37 37 39 37 39 36 42 43 36 31 36 40 37 36 35
8 7 7 7 8 9 9 12 15 17 20 24 28 31 32 33 35 35 34 34 31 25 28 31 31 33 34 35 33 35 37 37 35 41 42 38 33 37 39 39 37 38 39
7 7 8 7 7 8 10 13 16 19 23 28 31 31 32 34 35 36 37 32 29 26 25 24 25 29 28 31 34 34 33 32 37 37 35 34 33 36 39 40 41 42 42

GFSMW_850_spd_018.txt.gz
Wind_Speed
8 10 12 14 14 14 16 17 17 16 12 11 10 8 8 7 6 6 6 6 7 8 9 11 13 15 16 18 20 19 20 19 19 22 25 24 23 18 24 21 19 27 29
11 13 15 17 18 19 19 18 18 17 15 13 12 11 11 12 10 9 9 10 10 11 12 14 15 17 18 20 22 23 24 21 19 21 26 22 28 19 19 31 31 25 30
17 15 17 19 18 19 18 18 17 16 16 15 14 13 13 13 11 9 9 10 10 12 14 16 18 20 22 22 22 21 20 19 21 17 16 20 21 34 29 27 28 22 25
18 16 17 18 18 19 18 17 16 16 16 14 13 11 11 10 10 10 10 11 13 15 18 21 22 23 22 22 22 21 21 18 18 19 17 20 24 29 35 21 28 25 23
19 18 17 19 19 17 16 15 14 14 14 12 11 10 10 10 10 9 10 13 17 20 22 24 25 25 24 23 22 22 21 17 17 17 19 20 21 24 29 37 29 34 30
18 17 20 19 18 16 14 13 11 13 12 10 9 9 9 9 10 12 16 19 21 23 26 26 25 24 23 22 22 23 22 22 23 21 18 18 21 24 26 34 38 38 36
20 19 19 19 17 15 13 12 11 11 10 8 7 8 9 10 13 16 19 21 23 24 25 24 22 21 21 22 23 24 25 24 25 23 20 19 21 22 24 28 36 37 39
20 19 18 18 17 15 13 11 10 9 8 6 6 6 7 10 14 16 19 21 22 23 22 21 20 20 21 23 24 25 25 22 20 23 21 21 23 22 23 25 30 38 39
21 20 19 18 17 15 14 11 9 7 6 4 4 5 8 11 15 18 20 21 21 20 20 20 20 21 23 25 27 26 25 25 22 24 22 23 24 23 24 24 26 29 35
21 19 18 18 17 16 13 11 9 6 4 3 3 7 10 13 17 19 20 20 19 19 19 20 21 23 25 27 27 26 26 23 24 23 24 24 25 25 25 28 29 28 32
22 20 18 18 18 16 14 11 8 5 3 1 6 10 13 16 18 19 19 18 18 19 19 21 23 24 27 27 27 27 24 24 25 24 25 26 25 27 28 29 29 29 31
21 19 19 20 19 17 14 12 8 5 2 3 7 11 15 18 20 19 18 17 18 19 20 22 24 26 28 30 29 26 24 25 25 26 26 27 26 29 29 28 30 31 32
20 19 19 19 18 17 15 12 9 5 1 4 8 12 16 19 19 18 17 17 18 19 22 24 26 29 30 31 28 25 26 26 26 27 28 28 29 30 29 30 32 32 33
20 19 18 18 17 17 15 12 9 5 3 5 9 12 15 17 18 18 18 18 20 22 24 26 28 30 31 30 25 30 27 28 27 28 28 29 28 29 31 33 32 33 37
19 20 20 18 19 18 16 13 9 5 5 8 11 13 17 18 17 17 18 20 22 24 26 28 29 30 30 25 33 32 29 28 29 28 29 29 29 30 29 31 36 36 40
18 18 19 18 18 18 15 13 8 5 7 10 12 16 18 18 16 17 20 22 25 26 28 29 29 29 29 32 33 31 28 28 29 30 31 30 30 29 32 33 35 34 38
15 18 18 19 18 17 15 11 7 5 9 13 15 17 16 16 17 20 22 25 27 30 29 28 29 31 31 32 32 28 27 28 28 29 31 32 31 33 33 37 37 38 40
11 14 17 18 18 17 14 10 5 6 11 15 16 16 15 17 19 22 25 28 29 28 27 27 30 30 27 30 26 27 26 28 28 28 29 31 34 33 36 41 43 36 34
8 10 13 16 17 15 12 7 5 8 11 16 15 15 17 19 22 25 28 29 30 29 27 29 27 28 28 26 26 26 28 29 30 29 29 33 35 35 38 42 39 42 43
6 9 13 15 15 13 9 6 7 10 14 15 15 16 19 21 24 27 28 29 28 28 29 27 25 25 26 23 24 26 28 31 33 33 33 33 34 38 38 41 47 44 43
7 10 12 13 12 9 6 7 8 11 14 14 16 18 20 23 26 28 28 27 28 29 28 26 24 22 21 24 26 27 28 31 36 39 39 38 37 38 44 44 42 38 43
9 10 10 10 9 7 6 7 9 12 13 15 17 20 22 25 27 27 27 27 26 27 27 26 23 21 22 24 26 28 29 31 34 40 40 41 38 44 42 38 33 38 37
8 9 9 9 8 8 8 7 11 12 14 17 19 21 24 26 25 25 26 26 25 24 25 24 26 27 26 26 27 30 32 34 36 37 39 39 43 39 36 31 36 32 34
9 10 10 9 10 9 7 8 12 13 15 17 20 23 25 26 24 26 25 25 23 23 23 25 28 31 29 29 31 35 39 39 38 38 38 41 35 32 32 34 35 34 34
11 11 10 9 8 6 7 10 12 13 15 18 22 23 25 25 26 27 25 25 23 21 24 26 28 31 33 32 33 35 39 38 38 39 41 34 34 36 37 36 36 37 39
11 11 9 7 7 7 9 10 11 13 17 21 22 24 26 26 28 26 25 21 22 23 23 24 24 27 29 31 34 35 34 35 35 37 32 33 34 35 37 38 40 41 40

GFSMW_850_spd_021.txt.gz
Wind_Speed
8 7 9 10 12 13 15 15 14 14 14 13 13 12 10 9 8 7 7 7 7 8 8 10 11 13 14 14 17 18 21 22 20 23 25 24 16 18 22 17 19 26 30
12 12 13 13 14 16 16 17 16 15 14 13 14 13 13 12 11 10 8 8 9 10 12 13 14 17 18 18 20 20 22 20 19 21 26 15 25 14 22 29 30 28 27
17 16 16 15 16 17 17 17 17 17 16 15 15 15 14 12 10 8 8 9 9 11 14 16 18 20 20 19 20 19 19 20 20 15 14 15 14 34 24 27 20 20 27
18 18 17 16 17 18 18 17 17 16 15 14 14 13 11 10 9 7 7 8 11 14 17 20 21 21 20 19 19 17 18 16 17 19 17 19 23 28 29 16 30 22 25
21 20 18 17 17 18 17 17 16 15 15 13 12 10 10 9 8 6 8 11 15 19 22 23 23 21 20 19 19 19 20 19 19 21 20 20 22 25 29 37 28 31 29
22 19 17 17 18 17 17 16 15 15 13 11 11 9 9 8 6 8 10 13 16 19 23 24 22 20 20 20 21 21 22 22 22 23 23 20 23 26 27 34 37 36 34
23 20 19 17 16 16 16 14 13 14 12 10 9 7 6 5 6 9 12 15 18 20 24 23 21 20 21 21 21 23 24 24 24 27 24 25 25 25 28 31 38 38 37
21 20 18 17 16 15 14 13 12 11 10 8 6 5 4 5 7 11 14 16 18 20 22 21 20 20 20 21 22 24 24 21 24 22 25 25 26 27 27 30 32 41 41
23 22 19 17 15 14 13 13 11 10 8 6 4 3 4 7 10 13 16 18 19 19 19 19 19 19 20 21 23 25 24 23 24 24 26 25 29 28 29 29 29 31 40
23 21 19 17 15 14 14 12 10 9 7 4 2 3 6 8 11 15 17 18 18 18 17 17 18 20 22 24 25 27 26 25 24 26 27 28 29 31 30 32 31 31 34
23 22 20 17 16 14 13 12 10 8 6 3 0 3 6 10 13 15 17 18 16 16 17 19 21 23 25 26 26 25 24 22 26 26 28 30 30 31 31 32 33 34 32
23 21 20 18 16 14 13 11 10 8 7 3 2 5 8 12 14 16 17 15 15 17 19 21 23 25 25 26 25 25 22 26 28 29 30 31 31 32 32 32 33 33 34
23 22 20 18 16 15 13 11 10 9 7 4 3 6 10 13 15 16 15 14 16 19 20 23 24 25 26 25 24 23 25 28 28 29 30 31 31 32 32 32 33 36 36
23 21 20 18 16 15 13 12 11 10 7 4 5 8 12 15 17 16 15 16 18 21 23 24 25 25 25 25 24 25 30 29 29 29 30 30 31 31 33 36 35 33 36
23 22 20 18 17 15 13 12 11 9 7 5 7 11 14 16 15 14 16 18 21 23 24 25 25 25 25 23 26 31 31 31 31 30 29 30 31 32 31 32 34 38 39
21 20 18 18 17 16 14 13 12 10 5 5 9 13 15 15 15 16 19 21 22 24 24 25 24 25 26 26 27 27 31 30 30 31 32 31 32 31 32 31 36 36 39
18 18 17 16 16 15 14 13 11 7 4 6 10 13 15 15 16 19 21 22 23 25 26 24 25 27 30 26 27 28 29 28 29 31 32 34 33 32 37 37 36 37 39
14 15 15 16 15 15 13 13 10 6 4 8 10 13 16 16 18 20 20 22 24 25 25 27 28 28 28 27 27 27 28 29 30 31 32 34 35 39 35 40 42 45 43
12 13 14 15 16 15 14 11 8 5 6 8 11 15 16 18 19 21 23 25 26 27 28 29 30 29 29 26 25 27 29 33 33 32 32 35 36 37 37 40 44 47 46
12 13 14 14 14 13 12 9 6 5 6 10 14 16 17 19 21 23 26 26 27 29 29 29 28 27 28 24 25 26 31 33 35 36 38 35 36 36 38 40 45 43 45
10 11 12 12 13 12 10 7 5 6 8 13 15 16 17 20 22 25 26 27 27 28 28 28 27 25 23 26 26 27 30 32 37 42 41 39 38 38 38 43 39 39 40
11 11 12 12 10 9 8 6 4 7 12 14 14 16 19 21 24 26 27 26 25 27 27 27 27 25 24 25 28 28 30 33 38 40 41 41 41 38 42 36 36 36 35
10 10 10 10 9 7 6 4 6 10 12 13 15 17 21 23 24 24 24 25 24 25 26 27 27 28 28 31 28 30 33 36 38 39 40 39 40 39 34 36 33 32 36
9 10 10 9 7 6 5 7 10 10 11 13 16 20 23 24 23 21 22 23 24 26 26 29 30 32 33 31 34 39 41 40 42 41 40 40 35 34 34 35 35 35 34
8 9 9 7 7 7 8 8 8 9 12 15 19 21 22 22 22 21 22 24 22 23 28 30 32 33 34 35 35 37 40 40 40 39 38 33 35 36 36 36 36 37 36
9 9 9 9 8 7 7 7 8 11 14 18 20 20 22 21 21 23 27 22 23 23 24 26 26 30 30 33 36 37 37 37 36 34 32 35 34 35 37 38 40 41 40

GFSMW_850_spd_024.txt.gz
Wind_Speed
13 7 8 10 14 13 12 14 16 16 16 17 19 17 14 11 9 8 8 7 6 6 6 8 10 11 13 15 18 21 23 23 22 26 29 28 12 17 22 17 28 31 31
14 11 11 13 14 18 20 22 21 21 22 20 16 13 12 13 11 10 8 7 6 8 9 12 14 16 17 19 19 20 21 20 20 20 24 16 27 6 30 24 32 15 17
22 18 17 16 17 19 18 20 19 19 19 17 15 16 15 13 10 8 7 7 8 10 13 16 18 20 20 20 19 19 19 21 20 19 15 12 9 39 16 33 15 19 34
26 22 19 19 18 19 20 20 21 20 17 16 15 13 12 12 9 7 6 7 9 12 16 20 22 22 21 19 18 18 18 19 21 22 21 19 23 26 26 15 34 25 36
29 26 21 20 20 21 21 21 21 20 19 17 13 13 12 10 7 5 4 7 12 17 19 23 23 23 21 19 18 19 19 21 21 22 24 28 27 29 30 38 29 39 32
30 26 22 21 22 21 20 20 19 19 17 15 14 12 10 9 6 4 5 8 13 17 20 22 22 22 20 20 20 21 21 23 24 24 26 26 26 33 32 36 41 40 38
31 28 25 22 21 21 20 18 18 18 16 15 13 11 9 6 4 4 7 11 15 18 21 23 21 20 19 19 21 23 25 26 26 26 29 26 29 32 30 35 40 39 41
30 26 23 22 21 21 19 18 17 16 14 12 10 8 6 3 4 7 10 14 17 20 22 21 19 18 19 21 23 25 26 27 27 28 27 29 30 28 30 33 35 45 43
30 26 24 23 22 20 18 17 16 15 13 10 8 5 3 2 5 9 12 16 19 20 19 18 18 19 21 23 25 27 29 28 29 27 28 31 31 32 31 32 33 34 43
29 28 26 23 21 19 18 16 14 13 11 8 6 3 1 4 7 11 15 18 19 18 17 17 19 21 23 26 28 30 30 30 27 28 33 32 32 33 34 32 32 33 35
31 30 26 23 22 21 19 17 14 12 10 8 5 2 2 6 10 14 16 18 17 16 16 19 21 24 26 29 31 31 31 30 28 34 34 33 34 34 33 35 34 35 33
30 29 26 25 23 21 19 16 14 13 11 8 5 2 4 8 12 15 17 17 16 16 18 21 24 26 29 30 31 31 31 27 33 39 36 35 34 36 34 33 36 34 36
29 28 27 26 22 20 18 16 15 13 10 8 5 3 6 10 13 16 16 15 16 17 20 23 26 29 30 31 30 30 28 33 40 38 37 36 34 34 34 35 37 40 38
31 30 28 24 21 20 19 17 15 12 10 7 4 4 7 12 15 16 15 15 17 20 23 26 28 30 30 30 32 28 35 38 39 39 36 31 30 33 36 38 38 34 34
29 29 28 24 23 21 18 17 15 12 10 6 3 4 10 14 16 15 15 17 19 22 26 29 30 29 30 31 27 31 32 37 40 39 30 31 32 32 33 34 36 38 42
30 27 25 24 24 22 20 19 15 12 9 5 3 6 11 14 15 15 16 19 22 26 28 29 29 29 30 33 29 27 32 35 37 35 34 34 34 33 33 35 38 37 39
26 25 24 24 23 21 20 18 15 12 8 4 4 8 13 15 14 16 19 22 25 28 28 29 30 31 33 31 27 28 31 33 37 33 36 36 35 37 41 39 39 40 37
26 24 23 22 22 21 18 16 13 11 6 3 6 10 14 14 15 18 21 24 27 28 29 31 32 33 33 28 28 28 30 35 34 36 35 35 39 41 38 41 43 45 45
23 22 23 23 22 20 18 15 12 8 4 4 8 11 13 14 17 20 24 26 27 29 31 32 33 32 31 31 27 27 31 37 37 35 33 35 40 38 38 41 46 45 42
20 23 22 21 19 18 15 13 10 6 3 5 9 11 12 16 19 23 26 27 27 30 32 32 31 31 33 29 26 27 32 34 36 37 41 39 37 39 39 40 44 40 45
20 18 17 17 15 14 13 10 7 4 3 7 9 11 14 18 22 24 25 27 29 31 32 33 33 33 29 29 27 29 29 33 37 42 45 43 39 39 39 40 37 38 41
18 16 16 14 13 13 11 8 5 2 5 8 9 12 16 20 22 24 27 27 30 32 33 34 36 34 33 30 29 28 30 32 37 40 44 44 40 40 37 35 36 33 35
17 14 12 13 13 11 8 5 3 3 6 7 10 14 18 20 22 26 27 29 30 31 33 35 37 38 37 37 33 31 33 37 38 41 39 39 39 35 37 33 33 32 37
13 12 11 11 10 9 6 3 2 4 5 9 13 16 19 22 25 26 27 29 30 31 32 34 35 37 39 37 38 36 41 39 43 42 40 37 35 34 33 36 37 38 37
13 11 9 8 8 6 3 1 3 5 8 11 14 17 21 25 26 26 28 28 27 25 28 30 32 34 34 35 34 35 38 40 39 39 37 40 37 38 38 38 40 40 40
11 11 8 7 5 4 2 2 4 6 9 13 16 20 24 25 26 30 33 29 29 26 24 24 25 28 29 31 33 34 36 36 34 34 36 35 36 36 38 40 42 43 41

GFSMW_850_spd_027.txt.gz
Wind_Speed
20 13 11 10 12 11 10 13 17 22 25 26 26 24 21 17 14 11 7 7 6 4 3 6 9 12 15 17 19 20 20 20 22 25 28 24 17 11 6 13 23 25 22
23 17 15 16 15 14 17 20 22 23 23 23 21 19 16 13 11 11 10 7 5 4 6 9 13 16 18 18 19 19 19 18 19 22 22 15 22 5 35 16 30 24 16
29 24 22 20 21 19 17 19 20 21 19 17 16 17 17 16 13 11 8 5 4 5 9 13 16 18 19 18 17 17 18 20 19 19 14 10 9 39 16 34 19 16 30
31 31 27 24 22 23 21 21 22 21 16 13 15 16 16 16 13 9 5 3 4 8 12 16 19 20 19 17 16 16 16 19 21 23 21 17 21 17 21 20 41 28 37
39 35 29 27 25 23 24 23 23 22 20 18 16 16 16 14 11 6 2 2 6 10 14 18 20 20 18 16 16 16 18 20 21 22 25 26 29 29 27 32 29 39 40
39 34 29 29 28 26 25 23 22 21 19 18 16 16 14 12 9 6 1 4 9 13 16 19 20 18 16 16 17 19 20 22 23 23 23 24 27 29 35 41 41 37 36
41 36 33 31 29 28 26 24 23 23 21 19 18 15 13 11 7 4 1 6 10 15 18 20 18 15 16 17 19 21 22 24 25 26 27 26 24 28 31 35 41 37 38
42 36 33 31 30 28 27 26 24 24 21 19 17 15 11 8 4 1 4 9 13 16 18 17 15 15 17 18 20 22 25 26 27 27 26 25 28 32 31 32 37 45 43
41 36 31 31 30 28 26 25 24 22 20 18 15 13 9 5 1 3 7 11 15 16 16 15 14 16 18 21 23 26 27 28 27 27 26 28 34 33 32 33 34 34 41
38 33 31 31 29 27 25 22 20 19 18 16 13 10 7 3 1 5 9 13 15 16 15 14 15 18 20 23 26 27 27 28 29 27 29 33 38 35 33 31 32 35 35
37 34 32 29 29 26 24 22 21 19 17 14 11 8 5 2 3 8 12 15 15 14 14 16 18 21 23 26 27 27 28 30 30 30 35 39 37 34 33 32 30 32 32
36 34 32 31 30 27 25 23 21 19 16 13 10 7 4 2 6 10 14 14 14 14 15 17 20 23 25 26 27 29 30 30 32 37 37 38 37 32 29 29 33 35 39
36 36 34 32 31 27 25 23 21 19 16 13 10 6 2 4 8 12 13 13 13 14 16 19 23 25 27 28 29 31 29 31 33 35 38 38 32 30 30 33 36 37 35
40 39 37 33 30 27 25 23 20 17 15 12 9 5 2 6 10 13 12 12 14 16 19 22 24 26 28 30 31 30 31 30 33 36 37 35 31 30 33 35 34 33 37
40 41 39 34 29 26 24 22 19 17 14 12 8 3 3 8 11 12 12 13 15 18 22 24 25 27 29 30 29 29 29 31 34 36 35 35 29 29 29 31 37 39 41
33 37 36 32 28 27 26 23 19 16 14 11 6 2 4 9 12 11 12 15 18 21 23 24 26 28 28 29 28 26 29 32 33 36 38 37 34 32 32 35 35 34 39
38 37 35 31 28 27 25 23 18 15 13 9 5 2 6 10 10 11 14 17 20 23 24 25 27 28 29 29 27 27 29 31 34 35 37 38 36 36 39 40 37 40 39
37 35 32 28 28 26 23 20 16 13 12 8 4 3 8 9 10 12 16 19 22 23 25 27 28 29 29 28 27 27 28 31 35 35 35 34 39 39 37 41 44 44 40
33 31 28 27 28 26 23 18 14 14 11 6 2 5 8 8 11 15 18 21 23 25 27 28 29 29 30 30 26 25 29 33 33 35 36 36 36 39 37 39 43 42 40
29 29 28 28 27 23 18 14 14 13 8 3 3 6 6 9 13 17 20 23 24 26 28 29 29 30 30 30 25 25 27 32 35 38 42 37 37 36 36 39 39 37 44
28 27 26 24 21 17 15 15 14 10 5 2 4 4 7 11 15 18 21 24 25 27 28 30 30 31 31 33 27 26 27 30 34 41 42 44 38 35 38 35 38 35 37
24 21 21 19 17 15 15 13 10 6 3 2 2 5 9 13 16 20 23 24 26 28 30 32 33 33 34 33 32 27 28 28 35 36 44 42 36 38 36 33 30 32 32
20 18 19 19 16 14 11 9 7 5 2 1 3 7 11 14 19 22 23 25 27 28 30 31 34 36 35 34 34 33 30 33 34 39 36 34 37 35 32 29 30 31 37
19 18 17 17 17 14 11 7 5 3 1 2 5 9 14 17 20 21 23 26 28 28 29 30 32 33 34 33 33 34 37 37 40 38 38 40 33 30 30 33 37 36 35
17 15 14 14 13 11 8 6 4 3 1 4 8 12 16 19 21 22 25 26 25 23 25 26 27 30 33 32 31 32 35 36 36 36 38 37 35 37 37 37 38 38 37
15 14 12 11 11 10 7 6 4 1 3 7 11 15 18 20 22 25 27 24 25 24 22 21 21 26 25 28 30 31 33 33 33 31 33 34 35 35 36 38 41 40 38

GFSMW_850_spd_030.txt.gz
Wind_Speed
26 23 20 16 16 16 17 18 23 26 29 29 29 29 23 17 15 14 12 10 7 5 2 3 7 11 14 17 18 17 17 16 19 22 23 18 9 9 5 11 16 23 20
27 24 20 17 16 15 15 17 19 22 25 26 28 27 24 20 15 12 11 10 7 3 1 6 10 14 16 18 18 17 15 15 19 22 19 13 17 4 23 11 28 20 23
34 29 24 21 19 17 18 20 20 22 23 25 25 23 20 17 15 16 13 10 5 1 5 9 13 16 18 17 15 15 16 17 17 18 12 9 7 34 13 34 24 33 29
36 33 27 25 23 22 21 23 23 23 22 20 20 20 20 21 18 15 12 7 3 3 8 12 16 18 17 14 13 14 15 17 18 19 16 14 16 13 20 26 41 34 41
41 37 32 29 25 24 25 25 24 22 19 17 16 20 21 19 17 14 9 5 1 6 10 14 17 17 14 13 13 14 15 17 19 20 23 24 25 24 20 31 34 44 43
41 40 35 32 30 28 27 27 27 25 20 20 21 19 18 18 15 11 6 2 3 7 12 15 16 15 13 13 14 16 17 19 20 21 22 23 23 24 27 36 37 34 38
46 43 39 36 33 32 31 29 27 26 24 22 20 18 16 14 11 8 5 2 5 9 13 14 13 13 13 14 16 18 20 22 24 24 24 23 21 23 28 36 42 35 40
48 46 42 39 36 34 32 31 29 28 25 22 21 19 16 13 11 7 3 3 7 11 13 13 13 13 14 16 18 21 23 24 24 24 25 23 24 28 32 33 34 43 35
48 48 42 39 37 34 32 30 29 27 25 23 21 18 15 12 9 5 2 5 9 11 12 13 13 14 16 18 21 23 24 24 25 26 25 26 30 33 33 32 29 29 39
40 43 40 38 36 33 31 29 27 26 25 23 19 17 14 11 6 3 4 7 10 12 12 12 13 15 18 21 23 24 23 25 26 26 29 32 32 34 33 30 28 26 30
44 43 40 37 34 32 31 29 27 26 24 21 19 15 12 8 4 2 6 9 11 11 11 12 15 18 21 22 23 24 26 26 26 29 31 32 34 35 33 31 29 30 31
42 41 39 37 35 32 30 28 26 24 22 20 17 14 10 6 2 4 8 10 10 11 12 14 17 20 22 23 24 26 26 27 29 29 31 33 34 35 33 30 30 32 34
39 38 38 38 36 32 30 27 25 23 20 18 15 12 8 4 3 6 9 10 9 11 13 17 19 21 23 25 26 26 27 27 27 29 32 34 34 37 34 32 34 35 33
41 40 39 38 35 32 30 27 24 21 19 17 14 10 6 3 4 7 8 8 10 13 16 18 20 22 23 25 26 27 27 28 29 30 32 33 34 37 33 35 34 33 39
37 40 40 38 36 32 28 26 23 21 18 15 12 9 5 3 5 7 7 9 11 15 18 19 20 22 24 26 27 26 27 29 31 31 31 32 35 31 30 31 37 39 42
37 39 39 37 34 32 30 27 23 19 16 14 11 8 5 4 6 7 7 10 14 16 18 20 22 24 25 26 24 24 28 30 31 33 34 36 34 30 33 36 34 34 39
41 41 39 36 35 32 29 26 22 18 15 14 11 8 4 5 6 7 9 12 15 18 19 21 23 24 26 26 26 26 28 30 32 33 32 34 34 37 37 38 36 38 38
37 38 37 36 32 28 26 23 20 16 15 14 11 6 3 6 6 8 11 14 17 19 21 22 24 25 27 27 29 28 28 30 30 31 31 33 38 36 36 38 43 34 45
32 33 33 32 29 27 25 22 19 16 15 13 8 5 5 5 6 10 13 16 18 19 22 23 25 27 28 28 28 25 29 31 32 32 32 33 34 38 35 37 41 41 44
28 29 30 29 27 27 24 21 18 16 14 10 7 4 4 5 8 11 15 18 19 21 23 24 26 26 27 27 27 23 27 33 35 36 39 35 36 35 33 39 38 42 38
26 28 28 27 28 27 23 19 16 15 12 9 5 4 4 6 9 13 17 18 20 23 25 26 26 26 27 27 25 22 25 30 34 38 38 42 35 34 36 33 33 31 36
29 27 28 28 26 22 18 16 16 14 10 6 4 3 4 7 11 14 16 19 22 25 26 27 27 27 28 27 26 23 25 26 33 35 41 37 35 36 32 28 27 30 31
29 28 27 26 22 17 14 16 14 11 7 5 4 3 6 9 13 16 18 22 24 25 26 28 29 30 29 28 25 26 27 29 31 36 34 34 35 32 29 27 28 28 33
26 24 23 23 22 19 16 12 11 8 6 5 3 4 8 11 14 16 20 23 24 24 25 26 28 29 30 29 28 30 33 33 35 35 39 37 31 27 27 30 33 33 32
23 20 20 20 19 17 14 11 9 7 6 4 4 6 10 13 16 18 22 23 22 22 22 23 24 27 29 27 27 29 31 33 34 33 34 32 32 32 31 34 35 36 34
21 19 17 16 16 15 12 9 8 6 4 3 5 9 12 16 19 21 22 20 22 22 20 21 20 24 23 25 27 27 29 31 29 28 30 32 32 32 33 36 38 37 35

GFSMW_850_spd_033.txt.gz
Wind_Speed
32 28 21 25 23 22 22 24 23 27 30 30 31 30 26 22 18 13 10 9 12 8 6 4 5 8 12 16 18 18 16 16 19 22 21 13 6 19 13 11 18 20 27
32 22 23 26 24 21 20 22 26 27 28 30 32 32 27 22 17 14 13 10 9 7 5 4 7 11 15 17 17 16 15 15 19 21 19 12 15 5 9 25 16 28 23
37 28 27 28 24 23 20 20 22 25 29 29 31 32 27 24 19 15 13 13 10 7 4 6 10 14 16 16 15 14 15 15 15 17 11 8 6 33 13 27 25 28 32
39 30 32 31 27 23 19 18 20 22 25 30 30 30 28 25 20 16 16 13 9 5 5 8 12 15 15 14 13 13 15 16 18 17 15 14 17 13 18 19 40 34 42
37 32 35 34 28 23 21 21 23 25 27 26 25 24 24 21 21 20 16 12 7 4 6 10 14 15 14 13 12 13 15 17 18 19 21 22 22 19 17 34 39 47 46
37 34 37 34 30 25 24 26 26 26 24 22 21 21 23 23 23 20 15 10 5 4 8 12 14 14 13 12 13 15 16 18 19 20 20 21 20 22 23 34 41 42 46
37 38 40 36 32 30 30 28 28 27 25 21 21 21 21 20 18 16 12 7 4 6 9 12 13 13 13 14 15 17 18 20 21 21 22 21 20 22 26 34 43 43 49
36 41 44 40 37 34 33 33 32 29 25 24 25 23 21 19 16 12 8 5 5 7 10 12 12 12 13 15 17 19 21 22 22 23 23 22 22 26 27 30 34 44 31
36 42 48 44 40 37 35 35 33 29 28 27 25 23 19 15 12 10 7 4 6 9 10 11 12 13 15 17 19 21 22 23 24 24 24 26 27 27 29 29 27 28 34
34 41 48 45 40 36 34 32 30 30 29 26 24 21 18 15 12 8 5 4 7 9 10 12 13 14 17 20 22 22 23 24 24 26 28 28 28 30 31 30 30 27 30
38 43 45 41 38 35 33 33 31 30 28 26 23 20 18 14 10 6 4 6 8 10 11 12 14 16 19 22 23 24 24 25 26 26 27 28 29 31 31 32 33 30 31
33 43 43 40 37 35 34 33 31 29 27 25 22 19 15 12 7 4 4 7 9 10 11 13 16 19 21 22 24 25 25 26 27 27 28 29 30 31 33 36 34 34 34
36 41 40 39 37 36 34 32 30 28 26 23 20 17 13 9 6 4 5 8 9 10 12 15 18 20 21 23 24 26 26 26 27 28 29 30 30 33 35 34 35 35 34
40 41 40 38 36 36 34 32 29 26 24 21 18 14 11 8 5 4 6 8 9 11 14 17 18 20 22 24 25 25 26 27 28 29 28 30 31 33 31 32 32 35 39
37 40 40 39 38 36 33 30 27 25 22 19 16 13 10 7 5 5 7 9 11 13 16 17 19 21 23 25 26 26 27 28 29 30 31 31 29 27 26 30 37 36 38
35 38 39 39 38 35 33 30 27 24 20 17 15 13 10 7 5 6 8 9 11 14 16 19 21 23 25 26 27 25 27 29 30 31 30 29 28 30 31 31 31 30 35
38 39 38 38 37 36 33 29 26 22 19 16 15 13 10 6 6 7 8 10 12 15 18 20 23 25 26 27 26 25 26 29 29 30 30 29 31 34 35 37 34 35 29
36 36 36 36 35 33 30 26 24 21 18 17 15 12 8 6 7 7 8 11 14 17 19 22 24 26 27 27 26 26 28 29 29 30 29 31 34 32 35 37 35 42 43
33 33 32 32 32 31 28 26 23 20 18 16 14 11 8 7 7 8 10 13 16 18 21 23 25 27 26 26 27 27 28 29 32 32 32 29 31 36 34 35 41 41 44
26 29 29 29 29 29 27 25 23 19 17 15 13 9 7 6 7 9 12 15 18 20 23 24 24 25 25 26 26 23 26 30 33 35 33 33 34 33 32 36 38 40 36
24 25 27 29 29 28 27 24 20 17 16 15 11 8 7 6 7 10 15 17 19 22 24 25 24 25 26 27 25 22 24 28 32 38 39 41 34 33 34 32 33 31 35
26 27 30 29 28 26 25 21 18 17 15 12 9 7 5 6 9 12 15 18 22 24 24 25 26 27 27 26 25 21 23 25 32 34 39 37 35 34 32 28 26 29 30
29 28 28 28 27 24 19 18 18 16 13 10 7 5 5 8 11 14 17 20 22 24 25 27 28 29 28 27 24 24 25 28 29 32 34 35 35 32 29 25 26 26 31
28 28 29 29 27 21 16 15 16 14 10 7 6 5 6 9 13 16 19 21 23 24 25 27 28 29 29 29 26 28 30 30 32 34 36 35 30 27 26 27 30 31 30
29 27 26 25 24 22 19 15 12 9 8 6 4 5 8 12 14 17 20 21 21 22 24 24 25 27 28 26 25 27 29 31 32 31 32 31 30 30 29 31 33 33 32
25 24 23 22 22 19 16 13 10 8 7 5 5 7 10 13 17 19 20 20 21 23 22 23 22 24 23 24 26 26 28 29 27 28 29 30 30 30 31 34 36 35 34

GFSMW_850_spd_036.txt.gz
Wind_Speed
27 28 27 25 24 22 20 20 19 21 28 34 33 30 28 25 24 22 19 14 9 10 10 7 6 7 10 14 17 18 17 18 20 21 19 10 4 14 14 10 14 19 26
36 33 26 23 23 22 21 21 21 21 27 33 33 32 31 28 26 22 17 11 9 9 9 7 6 8 13 16 17 16 16 17 20 21 19 11 11 3 3 24 20 21 24
37 37 32 24 23 24 23 21 21 23 24 30 33 33 32 30 28 23 17 11 12 11 9 6 6 10 14 16 17 16 16 15 17 18 13 8 6 31 9 29 16 25 30
37 36 32 28 26 25 22 20 20 24 26 29 32 33 34 30 26 23 17 14 14 11 8 5 8 11 14 15 15 15 16 17 17 16 15 14 16 12 18 18 37 31 41
38 39 33 28 26 27 24 21 20 23 25 29 31 34 35 29 24 21 18 17 14 10 6 6 9 12 13 14 14 15 16 17 18 19 20 20 19 18 18 34 39 46 45
32 35 32 29 30 28 24 22 21 22 24 27 32 29 31 26 22 20 19 16 12 7 5 7 10 12 13 14 14 15 16 18 19 20 20 20 19 20 22 34 42 43 43
30 32 33 31 34 31 27 25 24 26 26 27 28 27 25 22 21 21 18 14 9 5 5 8 11 12 14 14 15 16 18 19 20 20 20 21 19 22 25 30 39 44 51
22 29 31 33 37 34 31 29 29 30 29 28 27 24 22 22 22 19 16 11 6 4 6 9 11 13 14 15 16 18 20 20 21 21 22 22 22 23 24 27 32 44 32
23 23 29 33 39 37 35 33 33 31 30 28 26 26 25 23 20 17 12 8 4 5 7 10 12 13 15 16 18 20 20 21 21 22 23 24 24 24 25 26 26 28 35
21 24 28 37 41 39 37 35 33 32 29 27 28 27 24 21 17 13 9 5 4 6 9 11 13 14 16 18 19 20 21 22 22 24 24 25 25 25 26 27 27 27 32
26 29 32 40 43 40 37 37 35 33 31 29 28 26 23 19 15 11 7 4 5 7 9 12 13 15 17 19 20 21 22 24 24 24 25 26 26 28 27 27 29 31 30
27 32 36 42 41 39 37 37 36 32 31 29 27 24 21 17 13 9 6 4 6 8 11 12 14 16 18 20 22 23 24 25 25 26 27 29 29 29 29 29 29 30 30
25 30 34 41 41 39 38 37 35 33 31 28 25 22 19 15 11 7 5 4 7 10 11 13 15 17 20 21 23 24 24 25 26 28 29 31 31 31 29 27 29 29 31
24 30 38 41 39 37 37 36 35 31 29 26 23 20 17 13 9 6 4 5 8 11 12 14 17 19 21 22 23 25 26 27 28 29 30 29 28 28 27 27 29 32 38
27 33 40 41 38 37 36 34 31 29 27 25 21 18 15 12 8 5 5 7 9 11 13 16 18 20 22 23 26 26 27 28 29 29 28 27 26 24 24 27 33 33 35
27 34 38 39 38 37 36 33 30 28 25 22 19 17 13 10 7 5 6 7 10 12 15 17 19 21 23 25 26 26 27 29 29 29 28 28 28 30 29 29 28 28 36
33 37 38 38 37 36 34 31 28 25 22 20 18 15 12 9 6 5 6 8 10 13 16 18 20 23 25 26 28 28 27 27 27 27 29 30 32 30 32 33 33 32 33
33 36 36 37 35 33 30 27 25 24 22 19 16 13 11 8 6 6 6 9 12 15 17 20 23 24 26 28 29 27 26 26 26 28 29 32 35 33 32 35 35 40 41
34 34 35 33 32 30 28 26 25 23 21 18 15 12 10 8 6 5 7 10 13 16 19 22 24 26 27 28 28 27 26 28 29 29 30 32 30 34 31 33 38 40 42
30 31 30 29 29 29 28 27 25 23 19 16 14 12 9 5 4 6 9 12 15 19 21 23 24 26 27 27 27 24 25 28 30 31 36 34 32 30 31 34 36 39 35
25 27 28 28 29 29 28 26 23 20 18 16 14 10 6 4 5 7 11 14 17 20 22 24 24 25 26 27 26 25 23 27 30 35 36 37 32 32 32 30 31 29 32
26 27 29 29 29 28 27 25 23 20 17 15 11 7 5 4 6 9 13 16 19 22 24 25 25 25 26 27 27 24 23 24 30 32 36 36 33 32 30 28 25 27 28
27 26 28 30 29 27 25 23 21 18 16 12 8 5 4 4 8 11 15 18 21 24 25 26 28 29 29 29 27 25 26 27 28 31 32 33 33 32 30 25 24 26 28
27 28 30 31 30 26 22 17 17 16 12 9 6 5 4 6 10 14 18 20 22 24 25 27 28 29 30 30 27 28 30 30 32 34 36 34 31 27 26 26 27 28 28
29 30 31 31 30 25 20 16 15 12 9 7 5 3 5 9 12 16 19 21 21 22 24 24 25 28 29 27 24 26 27 29 30 30 32 32 30 29 28 29 30 31 31
30 30 29 27 25 21 19 16 12 9 7 5 3 4 8 11 15 18 18 19 20 21 22 23 24 25 25 24 25 24 26 27 26 28 29 30 29 29 30 32 34 33 33

GFSMW_850_spd_039.txt.gz
Wind_Speed
32 28 27 28 28 25 25 25 24 22 21 22 32 35 34 31 26 23 22 22 18 12 10 8 8 6 7 10 12 13 14 15 17 16 15 8 4 13 12 11 11 19 20
39 36 30 28 28 26 27 25 24 21 21 23 32 38 36 31 28 27 27 23 17 12 9 10 8 7 8 10 12 13 14 16 18 18 14 7 7 2 8 20 22 24 12
40 41 40 33 28 25 25 26 25 23 21 23 31 35 34 30 30 30 27 21 16 11 11 10 8 7 8 11 12 13 14 14 16 16 12 7 4 24 6 22 15 20 26
39 43 42 37 33 29 25 24 25 23 21 24 29 34 36 34 33 32 28 22 16 13 13 10 7 7 9 11 13 14 14 14 14 15 15 13 13 9 13 15 28 26 36
37 41 44 38 34 31 28 26 26 24 23 26 28 34 36 35 34 32 27 21 17 16 13 9 7 8 9 11 13 14 14 15 16 16 16 16 17 16 15 23 29 38 37
30 32 39 37 35 31 30 27 26 25 25 27 30 33 34 35 34 30 25 20 19 16 12 7 6 7 9 12 13 14 15 16 17 18 18 18 17 18 18 20 28 31 30
25 31 31 34 36 34 32 29 27 26 27 27 29 32 34 33 30 28 25 22 20 14 9 6 6 8 10 12 13 14 15 17 18 18 18 19 19 22 25 27 29 29 35
25 21 27 30 34 36 34 31 28 27 28 28 29 33 34 30 27 25 23 20 16 10 6 5 7 9 11 12 13 15 16 17 18 18 19 20 21 22 23 26 28 39 25
25 30 20 27 35 39 37 33 31 29 29 29 31 32 29 27 26 26 22 17 12 7 5 5 7 10 11 12 14 16 17 17 18 19 20 21 21 23 24 25 26 25 34
28 23 25 25 33 39 40 36 32 32 32 29 30 29 29 28 26 23 19 14 9 5 4 6 8 10 11 13 15 16 17 18 19 20 21 22 23 25 26 26 27 28 29
24 24 26 27 33 41 40 37 36 35 35 32 31 32 31 28 24 20 15 10 6 3 4 6 9 10 13 14 15 16 18 19 20 21 23 24 25 27 27 28 28 29 28
16 24 26 29 34 40 38 38 37 35 33 33 33 33 30 26 22 17 12 8 4 3 5 7 9 11 13 15 16 17 19 20 22 23 25 26 27 28 28 28 27 27 26
11 20 25 30 35 38 39 40 37 35 34 34 33 31 27 23 19 14 10 6 3 2 6 8 10 12 14 16 18 19 20 22 23 25 26 27 27 28 28 26 25 27 26
12 20 26 31 38 41 41 40 38 36 35 33 30 28 24 20 16 12 8 5 2 4 7 9 11 13 15 17 19 21 22 24 25 25 26 26 26 27 25 25 24 24 30
15 21 29 35 39 40 40 38 37 35 34 31 28 25 22 17 13 10 6 3 3 6 8 10 13 15 17 19 21 23 24 25 26 26 26 25 25 24 23 24 26 29 31
18 23 30 37 39 40 39 38 36 34 31 28 26 23 19 15 12 8 4 2 4 7 9 12 14 16 19 21 22 24 24 25 26 27 26 26 25 27 23 26 25 25 29
22 26 34 37 37 38 38 37 35 32 29 26 24 20 16 13 9 6 2 3 5 8 11 13 16 18 20 22 23 24 24 25 25 26 26 27 27 29 29 30 28 32 25
25 29 35 36 36 36 36 34 32 30 28 25 22 18 14 11 7 3 1 4 7 10 12 15 18 20 22 23 24 25 25 25 25 25 25 27 32 29 28 31 33 38 38
24 30 33 34 34 34 33 31 31 29 26 22 19 15 12 8 5 1 3 5 8 11 14 18 20 22 22 24 25 25 25 25 25 25 27 30 26 29 28 30 37 34 33
24 30 32 32 32 32 32 31 30 27 23 20 17 13 10 6 2 2 4 7 10 14 17 19 20 22 23 24 25 24 23 23 24 25 25 26 28 27 28 32 32 33 33
24 29 31 31 31 32 31 29 27 24 21 18 14 11 8 3 3 3 6 9 13 16 18 19 20 21 23 25 25 23 19 22 25 26 28 28 28 28 31 29 29 27 29
26 27 30 31 32 31 30 28 25 22 18 15 12 9 5 3 2 5 8 12 15 17 19 20 20 22 24 25 25 22 19 21 25 27 29 31 30 31 29 27 25 24 25
26 28 30 33 32 30 27 26 23 20 16 13 10 6 4 2 3 7 10 14 16 18 20 22 24 26 27 26 25 22 23 24 24 28 29 29 31 31 28 24 22 23 25
28 30 32 33 32 28 24 19 20 17 13 12 8 5 3 2 6 10 13 15 18 19 21 24 26 28 28 27 25 26 28 27 29 30 33 32 29 26 23 23 24 26 25
28 29 32 32 30 26 23 19 16 14 12 9 6 4 2 5 8 11 14 16 18 20 22 23 25 26 27 25 22 24 25 26 28 28 29 30 28 27 25 25 27 28 28
29 31 32 31 30 25 21 18 15 11 8 6 5 2 3 7 10 13 15 16 17 19 20 22 23 24 23 23 23 22 24 25 24 26 28 28 27 26 27 28 31 30 29

GFSMW_850_spd_042.txt.gz
Wind_Speed
27 25 23 22 21 28 31 28 27 24 24 25 24 26 29 33 32 30 28 26 24 21 17 15 10 9 8 6 8 11 13 13 14 12 12 8 7 12 10 10 13 16 21
34 33 29 28 24 25 30 29 28 25 24 24 24 22 33 37 35 31 29 27 25 22 16 14 11 10 7 7 8 10 12 13 14 12 8 4 5 4 5 19 12 16 18
35 33 34 33 29 26 27 30 29 28 26 25 25 33 38 37 34 31 29 28 26 22 15 14 12 10 7 7 8 9 10 12 13 11 6 4 4 13 7 12 15 11 20
29 32 35 33 33 30 30 29 30 30 28 29 28 31 36 40 35 32 32 30 26 20 16 14 13 9 7 7 8 9 10 10 10 11 11 8 9 5 10 8 13 16 20
22 26 30 33 31 32 36 32 30 30 30 27 27 28 32 35 36 34 33 30 25 22 18 15 12 8 7 7 8 10 10 10 10 11 12 12 11 9 8 19 14 21 20
16 22 24 25 28 27 35 34 31 31 30 28 27 29 34 37 36 35 34 30 26 22 18 15 11 7 6 7 9 10 10 11 12 13 13 12 9 9 11 18 22 25 23
20 19 19 23 25 28 33 35 34 33 31 29 28 31 32 33 31 34 34 29 26 22 18 13 8 6 6 7 9 10 11 12 13 13 13 15 14 15 16 18 24 25 26
21 24 21 21 23 29 32 34 36 34 32 30 30 29 31 32 33 34 33 28 23 19 15 10 7 5 6 7 9 10 12 13 14 14 15 16 16 16 17 18 21 30 24
22 21 22 19 23 25 32 36 36 34 32 31 30 30 31 33 35 33 29 24 21 17 12 8 5 5 6 8 9 11 12 13 14 16 16 17 17 18 18 18 18 22 33
23 16 19 19 20 24 30 32 33 33 32 31 31 30 31 32 34 30 27 23 19 14 9 6 4 5 7 8 9 11 13 14 16 17 17 18 19 20 20 19 19 20 26
23 12 13 16 18 23 29 31 31 32 32 32 32 32 33 33 30 28 25 21 16 11 7 4 4 6 7 9 10 12 14 16 17 18 19 21 20 20 19 19 20 22 23
17 9 8 15 20 24 28 33 33 32 34 35 34 34 34 32 30 28 23 18 13 9 5 3 4 6 8 9 11 14 16 17 18 19 20 20 20 23 21 19 21 22 24
11 3 7 14 20 24 27 32 34 36 35 34 35 35 34 33 29 25 20 16 11 7 3 3 5 7 9 11 13 15 17 18 19 20 21 22 23 21 19 20 22 23 26
6 1 10 15 21 25 31 35 37 37 37 37 37 37 34 30 26 22 17 13 9 5 1 3 5 7 10 13 15 17 18 19 20 21 23 23 22 19 20 22 23 25 28
3 7 11 17 22 31 36 37 39 38 38 38 37 35 32 27 23 19 14 10 6 2 2 4 6 9 12 15 16 17 18 19 20 21 22 21 22 25 22 22 23 27 30
8 11 15 19 25 35 40 40 40 39 38 37 35 31 28 24 20 15 11 8 4 1 3 5 9 12 14 16 18 19 20 20 21 21 21 20 21 20 22 24 25 26 28
14 16 18 22 32 37 40 41 40 38 36 34 31 28 24 21 17 13 9 5 2 1 4 8 11 13 15 18 19 21 21 21 21 20 20 21 20 21 23 24 26 27 29
16 18 23 30 33 37 39 39 38 37 35 31 28 25 21 17 14 10 7 3 1 3 6 9 13 15 17 19 20 22 22 19 19 19 20 21 21 22 23 28 31 32 31
18 21 27 31 35 38 39 39 37 34 31 28 25 21 17 14 11 8 5 1 2 5 9 12 15 17 18 20 21 23 20 18 18 19 20 21 23 22 27 28 33 31 30
21 25 27 29 32 34 35 35 34 31 27 25 22 18 15 11 9 5 3 1 4 7 11 14 16 18 19 21 22 23 20 17 19 20 21 22 22 26 26 30 31 33 29
24 27 29 30 32 34 33 32 31 28 25 22 19 16 13 9 6 4 1 3 7 10 13 15 17 18 20 21 22 22 18 17 21 22 23 22 25 27 30 29 28 26 28
27 28 30 30 31 31 31 30 28 24 21 19 16 14 12 8 4 2 3 6 9 12 15 16 17 18 20 22 22 22 19 18 21 23 23 26 28 30 30 27 24 24 25
27 28 30 31 31 30 27 27 25 23 20 18 16 12 8 5 3 2 5 9 12 14 15 17 18 19 21 20 21 22 20 21 23 24 27 29 29 29 27 23 22 21 19
25 28 30 31 30 28 24 21 23 21 19 17 13 10 7 4 1 4 8 11 13 14 16 16 17 20 20 18 18 20 22 21 23 26 29 27 26 24 22 21 19 18 19
26 28 31 31 30 27 24 22 21 19 17 13 10 7 5 1 4 7 10 12 13 14 16 17 20 19 19 18 20 22 23 24 25 28 23 20 20 20 19 19 19 20 21
27 29 30 30 30 28 25 22 19 15 11 10 8 5 1 3 6 9 11 12 12 15 17 20 20 21 22 22 21 21 22 23 23 22 18 18 18 19 20 21 24 26 28

GFSMW_850_spd_045.txt.gz
Wind_Speed
28 27 28 30 32 34 32 30 27 24 22 22 24 23 26 27 27 26 28 26 25 24 21 19 15 13 10 8 7 7 9 11 11 10 8 10 10 10 10 8 8 12 16
34 34 33 32 32 33 34 32 30 27 27 24 24 23 26 32 35 37 32 29 30 26 23 20 16 13 11 8 6 6 9 11 11 9 8 3 7 8 6 9 16 11 16
33 34 34 36 34 35 34 33 31 29 29 26 23 24 32 38 42 38 36 33 30 25 23 19 16 14 11 8 6 6 8 10 11 9 4 3 3 13 10 13 11 14 14
26 29 32 33 35 37 34 33 32 30 28 28 28 35 38 41 39 37 34 33 29 25 24 20 17 14 11 8 6 7 8 8 9 11 8 6 9 4 9 7 9 15 19
19 21 23 28 32 32 36 34 31 30 29 30 32 35 33 26 33 37 34 30 30 27 23 20 17 14 11 8 6 7 8 9 9 9 9 10 9 9 10 16 11 20 19
13 16 17 23 26 30 27 34 32 32 30 33 32 31 25 32 33 38 36 33 31 29 24 20 17 14 10 7 7 7 8 9 10 10 11 10 9 9 11 15 22 25 26
14 18 20 21 22 26 32 30 31 31 31 31 28 26 28 31 29 35 35 32 31 29 24 19 17 13 9 6 6 8 9 10 11 11 11 12 13 14 15 17 23 25 29
18 14 20 24 22 25 29 30 29 30 30 28 27 26 32 28 30 34 31 32 31 28 22 21 15 11 7 6 6 8 10 11 12 13 14 14 15 15 17 18 21 27 25
13 17 22 22 21 21 26 31 30 29 29 28 29 31 29 30 31 34 33 34 31 25 22 17 12 9 6 5 7 9 10 11 13 13 15 16 17 18 19 21 21 21 26
13 17 21 16 20 20 23 28 29 29 29 28 28 29 29 30 30 32 35 31 26 22 20 15 10 6 4 5 7 9 10 12 14 15 15 17 18 19 21 21 21 21 26
16 15 17 12 14 18 22 26 28 29 29 29 31 30 30 30 31 31 30 27 22 21 16 12 8 4 4 6 7 9 12 13 14 16 17 19 19 21 21 22 22 23 24
12 13 13 5 10 16 23 25 26 32 31 30 30 30 31 31 33 32 28 23 22 18 13 9 5 3 4 6 8 10 13 14 15 17 18 19 18 22 22 22 21 24 26
11 8 8 6 10 18 23 25 26 30 32 31 30 32 33 35 34 29 25 23 19 15 11 6 3 3 5 7 10 12 14 15 16 18 18 20 21 22 22 22 23 25 27
8 7 5 9 12 18 23 23 25 27 32 32 34 37 36 33 30 28 25 21 16 12 8 4 2 4 6 9 11 13 15 16 17 18 20 22 23 23 22 25 24 25 28
8 6 8 13 18 21 23 24 25 29 35 36 37 38 36 32 30 27 22 18 14 9 5 2 3 6 8 11 13 15 16 18 19 20 21 21 22 26 23 23 26 28 31
13 8 12 18 20 23 26 28 31 38 38 39 38 36 33 30 27 23 19 14 10 6 2 2 4 8 11 13 15 17 19 20 20 21 23 23 22 21 21 23 24 25 30
15 15 17 19 22 27 30 35 39 39 39 39 36 32 30 27 23 19 15 11 7 3 1 3 7 10 13 15 17 19 20 21 20 22 22 22 20 22 23 24 25 27 31
17 17 19 22 24 29 33 38 39 38 37 35 32 28 26 23 20 16 12 9 4 1 2 6 9 12 15 16 18 20 21 20 20 20 21 22 23 23 24 28 31 35 34
16 18 20 24 28 33 35 39 40 38 34 32 28 25 23 20 17 13 10 5 1 2 4 8 11 13 14 19 18 21 22 20 20 18 20 22 24 24 24 29 34 35 36
19 21 22 25 29 34 36 38 36 31 27 26 25 23 19 16 14 10 3 3 1 3 7 11 13 15 15 17 20 21 22 21 19 20 21 20 22 22 26 30 34 38 36
22 23 24 27 31 31 30 30 29 27 26 25 23 19 16 13 8 4 5 1 3 6 10 12 13 15 16 18 21 22 21 19 20 22 24 24 22 26 29 30 32 32 29
23 22 25 26 23 23 27 28 27 25 23 20 18 16 13 8 7 4 1 2 6 9 11 12 13 12 13 17 19 22 18 18 22 25 27 29 27 30 29 28 24 24 26
24 26 28 27 26 25 21 23 23 22 20 17 15 14 11 8 4 1 2 6 8 10 11 13 14 15 17 17 16 16 17 20 22 24 27 28 28 27 25 22 22 20 21
20 21 24 24 25 22 21 20 23 20 18 18 15 11 7 5 2 1 5 7 9 10 12 14 16 18 19 17 17 23 24 23 24 27 30 29 24 20 21 21 21 21 21
23 23 23 25 26 24 22 21 21 19 17 14 10 8 5 2 1 4 6 8 11 12 14 16 18 19 20 19 22 23 24 24 26 28 30 23 21 23 22 22 22 23 25
25 25 24 28 28 25 23 22 19 15 12 10 8 6 4 2 3 6 9 11 11 14 16 16 17 19 20 21 24 22 22 23 24 24 20 20 21 22 23 24 26 27 29

GFSMW_850_spd_048.txt.gz
Wind_Speed
29 25 28 29 34 37 34 34 35 36 33 35 33 31 22 27 27 24 26 29 29 27 26 22 21 17 15 12 10 8 7 6 7 7 8 8 8 9 10 7 8 12 19
30 31 29 28 33 33 37 37 32 29 34 34 36 35 29 28 29 28 30 30 32 30 27 25 23 19 15 13 11 8 7 6 6 7 7 3 7 8 8 15 14 16 16
32 33 33 33 34 36 38 35 34 37 31 32 32 33 32 32 34 34 34 35 38 32 30 28 24 20 16 15 11 8 8 7 6 7 4 2 3 10 8 9 14 14 18
32 31 31 31 35 37 36 37 35 39 35 34 37 39 39 40 42 40 42 43 37 32 29 27 24 20 17 15 12 9 6 7 8 8 6 6 7 5 7 6 10 14 18
22 21 23 25 29 26 28 38 38 35 40 39 40 43 42 43 40 41 43 40 33 31 30 28 24 20 18 15 11 8 6 7 8 8 9 9 8 8 9 19 18 20 23
12 12 15 17 18 22 29 24 37 37 38 38 41 44 44 42 41 40 41 39 36 33 30 27 24 21 18 15 11 8 7 7 8 9 9 9 9 8 12 19 26 28 30
6 8 12 13 19 24 26 31 26 39 36 35 40 40 44 40 37 37 39 37 37 34 32 28 24 21 18 13 9 7 7 8 9 9 10 11 11 13 15 18 23 28 34
9 10 11 14 21 22 24 29 33 34 36 36 38 38 38 34 34 30 32 34 35 33 31 27 22 19 15 11 8 7 7 8 9 10 11 12 13 14 16 18 21 29 32
18 10 10 14 23 22 27 27 28 32 35 35 36 36 32 34 30 29 32 37 36 32 29 25 20 18 13 9 7 7 8 9 10 11 13 14 15 17 17 19 21 22 25
11 8 11 15 22 20 23 23 28 32 32 34 35 36 36 33 27 29 37 37 33 32 28 22 19 16 11 7 6 7 7 9 11 13 14 15 17 18 19 21 22 23 26
8 12 13 18 19 16 17 21 29 32 31 34 39 39 38 30 28 32 35 33 32 27 24 20 17 12 8 6 5 6 8 10 12 14 16 18 19 20 21 23 24 24 25
10 11 13 17 15 13 14 24 28 29 37 39 39 38 32 30 32 32 33 32 29 25 21 18 14 9 6 4 5 7 9 12 14 15 17 19 20 22 23 24 24 24 27
16 5 5 10 13 12 15 22 28 36 37 37 36 32 30 32 32 32 32 30 27 23 19 15 11 7 4 4 6 8 10 13 15 17 18 20 22 24 25 25 25 28 30
10 4 3 5 9 13 17 30 34 35 36 35 31 31 33 33 34 34 32 27 24 20 17 12 7 4 3 5 7 10 12 14 16 17 19 22 23 24 25 28 28 26 29
9 6 3 8 11 15 25 29 32 31 31 29 32 35 36 37 36 33 29 25 23 18 12 7 4 3 5 6 9 12 14 16 17 18 20 21 23 23 22 21 23 26 28
3 4 5 12 18 24 28 29 29 28 29 34 38 39 39 37 33 29 26 23 18 14 8 4 2 3 6 8 11 14 15 17 19 20 20 22 24 24 20 22 22 22 26
15 9 15 22 23 26 27 27 29 32 35 39 40 40 37 34 31 27 23 19 14 10 5 1 2 6 9 10 14 15 17 19 20 21 21 23 24 25 25 24 24 26 28
13 16 21 22 20 22 24 29 33 35 38 39 38 35 33 30 27 24 20 16 11 6 3 1 5 8 11 13 14 17 19 20 20 20 20 20 23 23 23 25 27 30 35
16 16 16 16 19 24 27 33 34 38 37 36 34 31 27 26 23 19 15 11 6 3 0 3 7 10 12 16 16 18 20 22 21 19 20 22 21 21 21 25 31 36 38
13 16 17 22 25 28 31 33 33 34 34 32 30 26 23 19 17 15 10 6 3 1 2 5 9 12 13 15 19 22 23 23 22 22 22 21 20 22 23 26 32 37 39
17 19 22 27 30 32 29 31 30 28 27 26 22 20 19 19 14 7 5 4 2 2 5 8 10 12 14 17 20 21 22 23 24 26 27 25 24 23 25 27 30 32 28
21 20 25 27 29 31 31 28 27 25 23 24 25 24 18 9 7 7 6 3 2 5 7 9 11 11 13 16 18 16 15 18 23 25 26 26 26 27 26 24 24 23 24
25 24 28 30 26 24 24 27 27 26 27 23 17 14 12 11 9 6 3 2 5 7 9 11 13 15 17 18 18 20 22 25 22 23 24 26 26 27 22 23 21 21 23
26 28 30 29 28 24 25 28 28 24 21 19 16 13 10 8 6 4 3 6 8 9 11 13 16 18 19 19 20 22 24 25 25 26 29 31 25 19 21 22 21 21 23
21 21 25 28 27 25 27 26 22 18 16 15 12 10 7 6 4 4 6 8 9 11 13 15 17 19 20 20 20 23 24 24 24 26 27 24 22 24 22 22 22 23 26
20 20 24 26 27 26 24 21 17 13 10 10 9 7 5 4 4 6 7 9 11 13 15 16 17 18 19 19 22 22 22 22 22 21 22 23 23 23 23 24 26 27 28

GFSMW_850_spd_051.txt.gz
Wind_Speed
30 24 25 29 35 37 38 38 35 30 39 39 37 34 33 32 35 30 28 27 30 27 29 29 28 25 21 17 14 14 12 8 6 6 7 7 6 6 5 4 8 11 12
41 37 31 27 25 33 40 35 38 40 36 39 37 38 36 29 36 32 30 29 30 32 31 30 29 26 24 20 16 15 13 10 6 6 6 4 7 5 6 9 9 10 14
40 36 35 36 33 28 32 34 33 34 44 43 42 40 37 33 34 34 34 34 33 35 32 31 31 28 24 21 17 16 13 10 7 5 4 4 4 7 7 8 9 12 15
39 35 30 34 35 35 28 30 32 31 27 39 44 43 44 42 38 38 38 38 36 37 34 32 32 29 25 22 19 17 14 10 9 7 7 7 8 5 4 8 12 14 16
22 24 28 30 30 28 27 28 38 35 35 31 41 42 45 41 39 41 37 39 39 40 35 33 31 30 27 22 18 16 13 11 9 8 8 8 8 10 10 14 12 16 20
9 7 13 17 18 19 21 25 24 37 37 37 39 44 43 43 42 44 40 42 42 40 34 33 32 29 26 21 19 16 13 11 9 9 9 9 9 10 11 15 21 25 27
5 4 7 7 9 12 15 17 22 26 34 42 41 44 44 44 44 46 44 45 45 40 34 34 31 29 24 21 19 16 13 10 9 9 9 10 10 12 13 16 19 25 30
6 7 10 12 13 15 17 18 22 27 27 36 44 45 45 46 43 45 44 44 42 39 33 31 30 27 23 21 18 15 11 10 9 9 9 10 11 13 14 16 18 25 27
19 14 13 14 12 13 17 21 24 26 27 30 42 45 44 42 40 41 42 39 38 35 29 31 29 25 22 20 17 13 10 9 8 9 10 11 12 14 15 17 18 20 21
23 11 11 11 12 14 20 22 23 27 26 30 39 41 41 37 36 36 35 34 34 32 32 31 28 23 21 18 13 10 8 8 9 10 11 13 14 15 16 18 19 20 23
27 28 22 16 12 14 16 16 19 27 26 34 38 38 36 33 33 31 30 33 34 34 31 29 25 22 19 14 9 8 7 8 9 11 13 14 16 17 18 20 21 23 24
32 26 18 14 17 19 19 12 21 25 31 34 31 32 30 30 31 29 29 34 35 33 28 25 23 20 16 13 10 8 9 9 10 12 14 15 17 19 20 21 23 24 25
19 13 12 10 11 14 16 17 23 27 29 29 29 30 30 32 29 29 33 35 34 29 26 23 21 17 11 7 5 6 7 9 11 13 15 17 19 21 22 23 24 26 26
19 14 9 7 10 12 15 16 24 26 27 31 30 31 30 30 30 32 33 33 31 28 26 21 17 11 7 6 6 6 8 10 13 15 17 18 20 21 22 23 23 23 26
19 15 16 5 6 8 13 17 26 29 32 33 29 28 30 29 30 34 35 33 29 26 21 17 12 9 7 6 5 7 9 12 13 15 17 18 18 19 20 18 20 23 25
14 9 4 5 7 10 14 21 26 30 30 29 27 28 29 32 35 37 34 31 27 22 17 13 9 7 7 4 6 9 11 13 15 16 17 19 20 21 19 19 18 19 23
12 12 7 9 14 17 20 21 24 24 23 25 27 30 33 38 37 33 29 27 23 18 15 9 7 5 4 5 9 11 13 14 16 18 20 21 20 20 22 23 20 21 23
13 17 16 17 18 19 19 19 19 21 24 27 32 36 37 34 30 29 26 22 18 12 10 7 3 4 5 8 10 12 13 16 18 19 20 21 22 22 19 20 23 25 29
11 14 15 16 17 17 19 19 24 27 29 28 27 26 27 30 29 25 21 18 15 12 7 3 3 5 7 10 11 14 16 17 18 18 18 20 21 20 19 23 26 30 33
9 12 14 15 17 21 20 24 26 25 25 23 27 27 26 25 24 20 16 11 10 6 3 2 4 6 8 10 14 18 20 21 20 21 23 24 22 20 20 24 28 32 34
12 14 14 17 19 18 16 20 17 22 26 28 28 26 23 19 16 15 13 9 6 4 1 3 5 8 10 12 14 16 17 20 22 25 27 25 23 20 23 23 26 26 24
12 13 19 22 20 22 20 27 29 29 29 27 24 21 19 17 15 11 10 7 3 1 3 4 6 7 10 13 15 15 15 18 23 25 24 22 22 24 23 21 19 20 22
15 17 19 21 19 24 25 29 29 25 24 23 24 19 15 13 11 8 6 3 2 3 4 5 8 10 13 15 16 18 19 21 22 21 21 22 25 25 20 20 20 19 20
24 24 24 24 24 22 24 21 25 25 24 20 18 15 13 11 9 5 3 1 2 3 6 8 11 13 14 16 17 19 21 21 22 23 26 26 22 19 18 17 16 17 21
21 23 25 25 25 24 26 25 23 19 17 17 16 13 10 8 6 3 2 2 4 6 9 11 13 15 16 16 17 19 21 21 21 21 22 21 19 19 18 18 19 21 23
25 23 23 25 26 25 23 22 19 17 17 16 14 11 9 6 4 3 4 5 8 11 13 15 16 15 17 15 18 18 17 18 19 20 20 19 19 19 20 21 24 24 25

GFSMW_850_spd_054.txt.gz
Wind_Speed
35 28 26 30 33 41 45 38 37 31 37 39 38 38 36 33 32 35 32 29 29 28 27 27 28 27 25 23 20 17 15 15 13 11 10 10 9 8 7 7 7 9 10
39 36 31 27 24 28 35 39 37 36 36 42 44 43 39 37 34 34 33 32 33 29 29 28 31 30 28 27 23 19 17 17 15 11 10 7 8 11 9 9 10 10 11
44 43 40 38 34 31 26 26 37 40 35 39 43 44 41 39 37 35 36 37 38 34 31 30 30 33 32 28 24 20 19 18 16 13 10 6 6 6 10 11 13 13 14
32 32 34 35 35 34 32 30 25 27 34 33 43 46 46 45 41 39 38 41 39 37 33 33 36 34 32 28 25 22 20 18 17 14 13 12 11 6 5 9 12 14 15
21 21 20 22 26 26 26 29 30 29 25 29 29 42 48 47 44 42 38 40 41 41 35 35 37 36 33 30 28 25 21 19 18 15 12 12 11 12 12 10 11 14 16
5 11 13 15 18 20 23 26 25 25 30 34 33 34 42 47 44 41 42 42 42 42 39 38 38 33 29 31 27 24 21 20 18 15 13 12 11 11 12 13 17 19 21
3 5 8 9 12 13 15 17 20 23 23 23 32 39 38 40 44 42 43 43 42 42 40 40 38 33 28 28 26 24 21 19 17 15 13 12 12 12 13 15 17 21 25
20 16 8 9 13 16 19 20 21 24 26 29 31 30 39 40 43 43 41 41 42 42 41 40 35 31 29 29 27 24 20 18 15 14 12 12 12 13 13 15 16 21 23
29 26 15 10 11 15 17 20 21 23 27 33 34 35 33 40 43 43 41 41 42 42 40 37 32 30 29 28 25 21 19 17 15 12 12 12 12 13 14 15 16 18 17
38 34 25 21 21 18 15 15 18 23 27 31 34 32 34 36 41 43 39 39 38 39 36 33 30 29 27 26 23 20 18 16 13 12 11 12 13 14 15 16 18 19 21
28 31 31 30 26 23 18 21 20 22 27 29 30 30 32 37 39 37 37 35 34 35 34 31 30 29 27 24 20 17 13 11 10 10 14 14 15 16 16 17 19 21 23
22 24 25 23 16 18 17 14 19 25 24 24 27 29 30 36 35 32 33 31 32 33 32 30 29 28 24 21 17 14 11 12 10 11 14 15 16 16 18 19 21 22 23
15 23 23 16 15 16 13 15 17 22 23 26 24 25 28 29 28 28 27 27 30 32 32 31 29 25 21 18 13 9 7 5 10 15 18 17 17 18 20 21 22 24 25
23 26 25 20 17 15 15 14 15 18 22 24 25 26 27 26 23 21 24 27 31 33 31 27 26 22 20 16 11 7 8 12 13 15 19 18 19 19 20 21 22 22 24
21 22 17 16 12 12 10 11 12 14 20 24 25 26 26 25 24 25 28 29 31 32 29 25 21 19 15 11 9 11 8 10 15 16 17 18 18 19 19 20 20 22 24
26 15 7 6 11 8 6 4 6 10 16 19 22 24 25 26 26 27 28 30 31 28 26 23 19 15 9 3 3 5 10 13 13 14 17 18 20 21 20 19 20 19 21
18 6 4 5 7 6 5 5 10 15 19 21 23 22 24 25 26 26 28 27 25 23 20 16 13 10 6 4 9 7 9 11 13 15 18 19 19 20 22 21 18 18 21
6 4 6 7 6 6 8 12 11 10 14 18 22 23 20 20 22 26 26 25 22 18 16 12 8 2 2 5 7 7 8 11 14 16 17 18 20 21 20 18 20 22 24
4 4 7 9 10 9 10 9 12 15 14 16 18 18 18 27 26 25 26 21 19 16 10 6 3 3 3 6 8 9 11 13 15 17 18 21 23 22 18 19 23 27 30
5 6 8 9 9 11 8 5 10 13 19 23 21 19 22 26 26 22 21 18 11 8 6 5 4 2 4 7 9 12 16 18 20 20 22 23 22 18 17 21 25 29 30
7 8 9 9 11 11 7 14 18 11 16 21 26 28 27 23 20 18 14 12 10 7 6 3 2 2 5 7 10 13 16 19 22 23 24 22 19 17 20 20 23 23 21
7 8 11 14 13 16 12 12 16 21 25 25 25 24 20 17 15 12 12 11 8 6 3 2 3 5 8 11 13 15 16 18 21 21 22 21 20 21 21 20 19 19 20
10 10 12 12 12 12 17 23 25 24 24 22 21 20 18 16 15 11 9 6 4 2 3 4 6 8 11 13 14 16 17 18 18 20 19 21 23 22 20 18 16 17 18
16 15 16 19 20 21 21 22 22 20 19 19 17 16 16 15 12 8 6 3 2 2 4 6 9 10 11 13 13 15 17 18 20 22 23 22 21 18 17 15 13 16 19
19 19 19 20 21 20 19 19 20 19 17 16 15 15 12 10 7 5 3 1 2 5 7 9 10 11 13 13 13 15 18 17 19 20 20 19 17 16 15 15 16 19 20
18 19 18 19 21 19 18 18 16 13 14 15 13 11 8 6 3 1 2 3 6 8 10 11 12 13 13 12 16 18 17 19 18 19 18 17 15 16 17 20 22 21 22

GFSMW_850_spd_057.txt.gz
Wind_Speed
37 36 32 27 27 37 43 39 33 28 28 29 41 38 38 36 35 33 30 29 29 25 25 24 24 26 25 22 21 20 20 18 17 16 15 14 13 12 11 10 9 10 9
40 39 36 31 28 24 34 43 40 36 34 32 33 41 40 40 38 35 34 33 32 30 27 27 28 29 28 27 26 24 23 20 19 18 14 9 13 14 14 12 12 12 12
43 45 42 37 33 29 24 26 30 33 36 35 34 40 42 43 42 40 36 36 37 34 33 27 29 31 31 32 31 28 26 23 21 20 15 6 8 7 12 15 15 15 15
25 24 25 24 29 34 32 30 29 26 23 28 37 37 43 44 46 43 39 37 37 38 36 35 30 31 32 34 34 30 28 24 23 21 21 20 16 9 6 12 15 16 17
9 10 11 11 10 16 24 29 29 27 25 22 26 32 41 45 45 45 45 42 40 38 37 38 36 33 34 36 34 32 29 27 24 22 21 19 18 16 16 11 12 15 16
25 13 8 9 8 8 13 19 22 24 27 28 29 27 28 33 43 43 45 45 40 40 38 41 40 36 35 38 36 32 29 27 24 22 22 20 17 14 16 15 16 16 17
28 26 16 10 6 8 10 12 15 19 22 23 23 24 29 34 32 34 42 45 45 42 41 41 42 39 37 38 33 31 30 27 25 23 21 19 18 15 16 16 17 18 20
28 25 20 15 11 9 10 12 16 18 20 23 24 24 24 25 31 35 35 40 43 44 42 41 42 39 36 33 31 29 29 27 23 20 18 16 16 14 14 16 16 18 20
31 24 22 16 13 15 18 18 19 21 23 24 26 29 30 29 28 32 37 39 38 39 39 38 39 37 33 31 29 30 28 25 21 19 16 13 13 14 13 15 17 18 18
29 22 22 23 20 19 22 23 23 24 24 24 25 27 31 31 29 28 36 38 38 38 38 38 36 32 30 29 30 28 25 22 19 16 13 13 12 13 16 18 19 20 20
28 25 21 25 26 23 21 24 24 23 23 23 25 29 33 29 28 29 33 39 37 33 34 33 31 29 31 31 29 26 23 21 18 14 12 13 14 14 16 18 19 19 22
28 26 20 24 26 25 16 16 19 19 19 23 26 30 26 25 25 29 32 36 34 30 28 26 29 32 31 29 25 23 20 18 17 13 13 11 13 18 20 20 21 22 22
26 23 21 27 21 20 16 12 13 16 18 20 20 19 20 19 23 25 28 29 27 25 24 29 31 30 26 23 20 18 16 14 12 12 13 15 16 18 19 21 23 23 24
21 21 21 16 15 18 19 16 17 18 19 17 15 14 17 17 18 22 23 23 24 25 28 29 27 23 22 20 16 12 10 10 12 13 13 15 16 19 21 22 23 24 26
25 23 15 11 14 11 10 12 13 15 13 12 8 10 13 16 18 20 22 25 25 24 24 25 26 22 18 15 12 11 12 11 10 13 13 15 17 20 22 23 23 23 24
24 14 7 7 7 7 7 9 10 8 6 4 5 10 14 17 21 23 23 23 21 23 26 24 21 20 18 14 11 7 6 7 10 14 15 18 20 21 21 20 21 21 21
14 9 4 5 4 5 7 8 6 5 4 6 11 14 16 19 21 21 20 20 26 26 23 22 19 15 12 9 4 2 7 11 13 16 17 19 19 19 20 21 20 18 20
8 5 3 3 4 4 3 1 1 1 4 9 11 13 13 14 17 19 22 24 23 22 20 16 12 7 5 2 2 6 8 11 12 15 17 18 19 21 21 21 20 21 24
4 2 0 1 1 0 1 3 7 7 9 11 11 9 9 14 20 22 24 23 23 21 17 12 8 6 3 2 4 8 9 11 14 14 17 20 23 22 20 19 21 26 29
2 2 2 2 3 5 5 4 8 10 10 13 15 16 18 20 23 23 23 20 16 14 10 8 7 5 2 4 6 8 12 14 17 18 20 21 21 20 16 19 24 29 26
3 4 4 5 6 5 4 6 9 11 16 20 22 21 22 23 22 21 18 16 13 12 11 8 4 1 2 4 6 11 15 17 20 21 22 21 19 15 18 18 20 20 20
4 4 4 6 6 5 7 7 10 15 14 16 21 23 21 19 17 15 14 14 12 9 6 2 0 3 6 8 11 13 16 18 20 21 21 20 17 20 19 19 17 17 19
8 8 7 8 12 6 11 18 22 21 21 22 21 19 18 16 16 14 12 10 7 4 2 1 2 5 8 11 14 15 15 16 16 19 19 20 20 19 16 15 15 16 18
12 13 14 16 17 17 20 22 21 19 18 18 17 16 15 15 13 10 8 5 3 2 3 4 6 9 11 12 13 14 16 17 18 20 20 20 18 16 15 13 13 15 18
16 18 18 19 20 19 18 18 17 18 17 16 16 14 12 10 8 5 4 2 1 3 5 7 8 10 11 12 13 14 16 16 18 20 19 17 16 14 13 13 14 16 18
17 19 17 18 18 16 17 17 16 13 12 13 12 11 8 6 4 2 1 2 5 9 10 11 12 13 13 12 15 17 17 18 19 19 18 16 15 15 17 18 18 17 19

GFSMW_850_spd_060.txt.gz
Wind_Speed
32 31 28 29 28 25 30 34 35 31 30 27 26 32 37 37 35 33 30 28 26 26 22 24 25 27 26 25 23 23 22 21 19 17 17 16 16 15 14 13 13 12 12
37 38 34 30 29 27 26 27 35 36 35 32 30 32 28 37 37 34 32 31 30 28 27 27 28 28 27 27 28 26 25 24 21 20 18 13 16 18 18 17 15 15 15
27 29 30 30 31 31 27 26 26 32 36 36 34 35 35 35 38 39 36 34 33 34 31 32 29 28 28 29 30 31 28 27 24 22 18 8 10 11 16 18 18 17 17
12 11 11 10 11 17 28 30 28 24 20 21 31 36 38 39 38 38 36 37 36 36 35 34 32 32 30 31 32 32 32 30 28 24 25 25 18 9 8 16 19 19 19
28 22 13 7 3 4 11 22 31 30 25 22 24 24 33 39 39 38 40 40 40 39 38 35 35 34 35 34 33 33 34 33 30 29 28 25 24 23 20 12 16 17 18
27 24 20 15 11 6 4 8 13 17 22 26 25 25 25 25 31 35 38 41 43 42 42 39 36 36 36 37 35 34 35 33 32 31 28 27 24 23 21 20 18 15 16
28 25 22 18 12 9 8 5 5 9 15 18 20 22 23 26 29 29 31 34 40 43 44 41 41 39 38 39 37 36 36 34 33 31 29 28 24 22 20 17 17 17 17
26 22 18 17 14 12 10 9 9 9 10 13 15 17 18 21 23 26 29 34 34 35 40 44 44 41 39 39 37 35 33 32 31 30 29 28 23 19 17 17 17 15 17
25 23 20 16 18 20 15 16 15 14 14 16 17 18 19 22 23 23 25 29 34 35 35 39 42 42 39 37 34 31 31 31 31 29 28 23 21 19 16 15 15 14 13
26 24 20 18 19 20 20 18 21 23 20 20 20 21 22 23 22 24 27 29 31 33 35 34 36 38 37 31 28 27 29 30 28 26 22 20 17 16 16 14 16 17 19
27 26 23 17 17 22 22 21 19 19 22 22 21 21 23 26 28 26 26 28 29 30 32 31 31 31 29 26 25 27 28 27 23 20 17 15 13 13 15 14 15 17 21
24 24 22 18 19 18 15 17 15 13 14 15 17 20 22 23 24 22 23 26 27 28 28 27 26 25 25 26 27 27 24 20 19 17 16 15 13 13 12 16 17 19 21
22 23 20 18 15 14 16 16 15 13 11 12 15 18 19 18 16 14 17 19 19 21 23 22 23 23 26 27 25 23 22 18 17 15 13 11 10 10 12 18 20 20 22
20 19 13 9 10 11 11 11 15 18 19 20 22 19 15 11 9 8 10 15 19 21 22 23 24 24 25 25 23 19 17 16 12 9 11 10 12 13 13 19 19 20 22
14 14 12 9 10 9 11 14 15 16 14 13 16 11 7 6 7 9 12 16 20 21 23 24 24 24 22 19 19 16 12 9 8 8 9 10 11 13 16 18 20 22 23
13 11 10 10 12 11 13 15 16 15 13 11 6 6 5 7 10 11 14 16 19 20 21 23 22 21 18 15 13 12 8 6 7 7 8 10 14 16 17 17 18 20 22
11 8 7 8 10 11 11 11 10 10 10 4 1 2 3 6 6 9 12 14 17 20 20 20 19 17 14 11 7 5 4 4 5 7 10 12 14 17 19 20 22 21 19
8 6 5 6 7 7 8 8 7 7 6 3 4 4 4 6 9 11 15 20 23 21 19 17 15 14 13 9 4 3 0 2 6 10 12 15 17 19 20 20 19 19 21
4 3 3 4 4 5 6 6 5 4 1 3 7 7 6 10 12 17 20 19 18 19 19 16 12 10 7 6 4 2 3 5 8 12 15 18 19 19 19 17 19 24 25
1 1 1 1 4 5 5 5 3 3 4 6 8 10 13 14 16 18 18 17 17 17 14 12 10 8 5 4 3 6 7 10 12 15 17 17 18 17 14 18 23 25 21
1 1 1 2 5 3 4 4 6 9 11 12 14 15 16 18 19 19 17 15 12 12 12 10 8 6 3 2 7 9 11 14 15 16 17 18 18 15 16 16 18 18 18
4 3 2 4 4 6 6 8 14 15 13 13 15 18 18 17 16 15 15 14 12 11 10 6 4 3 3 5 9 10 13 14 16 18 18 18 18 18 16 15 14 14 15
7 7 6 7 8 7 9 13 15 14 15 17 18 18 17 16 15 13 12 10 9 6 5 4 4 5 6 7 10 12 13 14 14 16 17 17 17 15 13 12 13 14 16
10 11 12 12 16 18 20 19 20 19 17 17 17 16 15 14 12 10 8 6 5 3 2 3 5 7 9 11 11 12 14 15 15 16 16 16 15 13 12 11 12 14 16
16 17 18 18 19 18 18 17 16 15 14 15 15 14 12 10 8 7 6 5 5 6 7 7 8 9 10 11 12 13 15 15 16 17 16 14 11 10 10 10 13 14 16
19 19 19 20 19 17 17 16 13 11 11 12 12 10 8 6 5 5 5 4 5 7 10 12 12 12 11 11 13 15 15 15 15 15 14 12 12 13 14 16 15 14 16

GFSMW_850_spd_063.txt.gz
Wind_Speed
25 25 25 25 25 26 29 28 32 32 30 31 32 34 35 36 35 31 28 27 26 26 23 24 26 30 30 28 24 25 24 23 22 19 18 18 18 17 17 16 16 16 15
24 26 28 29 28 26 25 28 28 30 36 36 34 34 31 33 35 36 32 30 28 28 26 27 28 30 31 31 29 30 27 26 25 24 20 14 19 21 21 20 19 19 18
13 15 18 22 25 28 28 26 28 27 29 35 37 37 35 33 34 31 30 33 33 32 31 32 31 31 32 33 31 32 31 30 29 28 21 9 12 13 20 22 21 21 21
17 14 9 2 7 14 24 30 31 27 26 23 34 40 40 40 38 35 31 33 34 36 35 34 34 34 33 34 33 32 34 34 33 30 29 28 20 11 9 16 20 22 23
19 20 18 15 8 3 5 14 25 30 27 24 22 26 35 38 38 38 35 35 36 36 38 37 36 35 36 36 36 35 36 36 36 35 33 31 30 27 24 18 21 23 24
18 16 16 14 12 10 8 3 6 14 23 25 24 26 27 28 28 30 33 36 38 37 41 40 40 39 36 36 36 38 37 36 36 36 33 34 33 31 29 28 27 22 22
18 17 15 13 11 9 6 4 2 2 9 15 21 23 25 28 28 28 28 29 31 34 35 38 41 41 40 38 36 39 38 37 38 37 35 33 33 31 28 29 29 22 22
18 16 14 12 11 10 9 8 7 5 5 6 8 12 17 22 25 25 26 28 29 29 29 30 35 39 40 40 39 39 38 37 38 37 33 32 31 30 29 25 21 20 17
16 16 13 11 10 12 13 13 13 14 14 13 13 13 13 14 15 17 20 22 24 26 30 31 32 35 41 41 40 39 37 33 33 33 33 31 27 28 26 22 21 19 15
17 17 16 13 9 11 13 13 14 15 18 20 20 18 16 15 15 16 17 19 23 26 28 29 31 32 35 38 36 33 30 28 31 32 30 26 26 22 20 18 17 14 18
18 19 18 13 12 12 12 10 12 12 12 14 17 18 17 17 18 20 22 24 25 27 28 28 27 28 28 30 30 28 27 30 29 28 27 25 24 20 17 16 16 16 17
18 19 17 13 10 10 11 12 11 9 8 6 7 9 12 15 18 21 24 25 26 27 26 22 21 22 23 25 26 26 26 26 27 25 23 20 18 15 15 14 15 13 14
16 16 13 11 10 10 10 11 11 12 12 13 12 11 11 14 18 18 18 18 17 15 17 16 18 20 23 26 26 26 27 26 23 19 16 13 12 13 14 13 13 11 15
14 13 11 10 8 8 9 10 12 13 11 10 11 13 16 17 17 10 8 8 10 12 15 17 19 22 24 24 25 25 23 20 17 14 13 12 12 10 12 12 12 14 17
11 8 9 7 7 7 9 12 12 12 13 11 10 12 13 10 7 7 6 8 11 14 16 18 21 23 23 22 21 19 15 13 11 10 9 7 7 7 10 11 12 14 16
8 6 4 5 7 9 11 11 11 14 15 12 11 9 7 5 3 4 4 5 8 11 16 19 22 24 23 19 14 11 11 10 8 6 5 5 6 8 9 10 11 14 15
5 4 3 4 6 8 8 10 12 14 15 13 9 8 8 8 6 2 4 5 10 14 16 19 18 16 14 14 13 10 7 5 2 1 2 3 6 9 10 12 13 14 14
2 2 1 3 5 7 8 10 11 12 13 10 8 8 8 8 7 9 12 14 17 18 18 16 16 17 15 12 10 6 5 4 3 2 3 6 9 11 14 13 14 16 17
1 0 2 4 5 6 8 9 9 9 8 7 7 8 8 9 11 12 14 17 16 17 16 16 15 13 12 10 8 7 4 1 3 6 8 10 12 13 12 13 17 18 17
2 2 4 3 3 5 6 6 5 6 7 8 9 12 13 14 15 15 15 16 16 17 16 14 11 10 8 6 5 4 4 5 7 9 11 11 12 13 9 12 16 16 14
4 4 4 2 3 6 7 6 10 13 14 15 16 16 16 17 18 18 16 14 13 11 13 11 11 8 7 8 8 8 8 8 9 11 12 12 12 12 13 12 13 13 13
5 5 4 3 6 9 7 14 17 19 19 19 19 19 18 16 15 13 14 14 13 11 11 9 8 7 4 3 5 6 9 11 11 12 12 13 13 12 11 9 9 10 11
6 7 6 8 9 10 13 16 20 18 20 19 17 16 15 15 15 13 12 11 9 7 7 6 5 4 5 6 7 8 9 11 12 12 11 12 11 9 8 7 8 10 12
10 10 11 13 16 17 17 19 21 18 16 15 15 15 13 13 12 10 9 8 7 6 6 6 5 5 6 8 9 11 12 11 11 10 10 10 9 7 7 8 9 11 12
15 15 17 19 20 19 18 18 17 16 15 16 15 13 11 10 8 7 6 5 5 5 5 6 7 8 8 9 11 12 12 12 11 11 10 8 5 5 6 7 9 10 12
19 19 19 19 19 19 18 16 15 13 13 13 12 10 8 7 6 5 5 6 7 8 9 10 11 11 11 11 12 12 12 11 11 9 8 6 6 7 8 10 10 10 12

GFSMW_850_spd_066.txt.gz
Wind_Speed
16 19 22 26 26 29 31 31 29 28 25 28 31 34 34 34 35 35 32 29 28 27 28 28 27 27 29 28 28 27 27 27 27 23 23 22 21 21 21 21 20 20 19
15 17 22 23 26 27 28 29 30 32 31 27 34 35 37 40 39 38 38 36 33 31 32 30 30 29 30 30 30 32 32 31 31 27 15 10 18 25 25 24 24 23 23
4 6 14 21 25 27 29 30 30 29 31 32 28 30 32 34 37 37 36 36 38 38 35 33 32 32 31 33 35 36 36 36 34 33 20 10 12 13 22 27 27 26 26
6 6 5 1 8 16 24 29 32 32 34 33 29 27 34 37 40 38 36 36 36 37 39 37 36 36 34 35 36 37 38 38 39 36 37 32 15 9 7 18 24 26 27
7 9 10 11 8 4 3 11 21 29 32 31 32 27 28 28 33 36 36 36 37 37 35 39 38 39 39 38 39 40 40 42 42 41 39 39 37 33 25 13 20 25 27
7 7 10 10 9 8 6 4 3 11 22 29 29 28 24 24 24 28 32 37 39 39 38 39 39 39 42 40 41 42 42 41 44 43 43 42 39 37 36 33 25 22 23
7 7 7 6 6 6 5 4 3 1 6 13 23 28 28 25 23 25 23 25 28 32 33 34 36 37 40 43 43 42 43 43 45 43 44 42 41 37 34 32 30 27 26
7 8 8 7 6 7 7 6 5 5 6 6 9 14 21 25 26 27 25 24 24 29 29 29 30 31 32 36 40 43 43 43 43 45 45 43 40 38 34 29 29 28 25
7 8 8 8 8 9 10 11 11 11 11 12 13 12 13 14 15 17 18 19 21 22 24 25 27 28 29 30 34 41 42 43 42 41 39 40 39 37 35 32 28 26 21
6 8 8 8 7 8 9 9 9 11 13 13 14 16 16 16 16 17 19 20 22 24 24 25 26 26 26 29 30 33 38 38 35 34 35 38 33 33 31 27 24 22 17
5 7 7 6 5 4 4 4 6 7 7 8 10 12 15 16 16 17 18 20 21 24 25 26 27 26 24 24 26 28 31 31 31 31 33 31 27 23 20 17 17 17 15
4 5 5 4 2 2 4 5 5 6 8 6 5 4 5 7 9 12 15 18 21 24 25 26 24 23 22 21 22 25 27 27 27 26 25 23 21 17 15 16 18 17 17
3 4 4 4 5 5 5 6 7 7 6 5 6 6 6 7 8 10 14 18 19 20 20 19 20 18 19 19 21 23 25 23 20 20 17 16 15 14 15 15 15 15 16
2 3 4 5 4 4 5 6 8 8 7 5 3 4 5 7 9 12 14 12 12 11 11 13 13 15 17 17 20 22 22 20 17 15 13 12 12 13 13 12 13 11 11
2 2 3 4 2 3 4 6 7 8 7 4 4 6 8 7 6 6 6 8 8 9 9 11 12 14 15 15 16 17 17 16 16 13 11 10 11 12 12 8 8 9 12
2 2 0 2 1 3 4 6 7 7 8 6 8 7 5 6 5 5 4 4 3 3 3 5 8 12 15 15 14 13 13 12 10 9 8 8 7 5 5 5 7 11 12
1 0 2 1 1 2 3 5 5 7 8 9 7 8 8 8 8 7 6 5 4 5 9 13 14 14 13 12 11 11 11 9 8 6 3 1 4 6 8 9 11 12 13
2 3 3 2 3 3 4 4 4 6 8 8 8 9 9 10 10 10 11 11 12 13 14 12 11 12 13 11 11 9 7 6 4 2 1 3 6 9 10 9 11 13 13
4 5 5 5 4 3 3 3 4 6 7 9 9 11 11 14 14 16 17 16 14 15 14 12 11 10 10 8 9 7 5 3 1 2 4 6 8 8 9 9 13 12 13
5 6 6 5 4 3 2 3 5 7 9 11 13 14 16 16 17 17 17 15 13 14 13 11 9 9 10 8 5 4 3 3 4 6 7 8 8 8 8 9 11 11 9
7 6 6 6 4 4 5 6 10 13 16 17 18 18 17 17 17 16 14 13 12 11 10 9 9 8 7 6 6 5 5 5 6 6 7 7 8 9 9 8 8 8 8
8 8 7 6 7 6 9 13 15 17 19 19 20 19 18 17 14 13 14 13 12 10 9 8 6 4 3 3 5 8 8 8 6 6 8 8 9 8 8 7 7 7 7
9 9 8 9 8 12 14 16 20 20 21 19 18 16 15 15 14 13 12 10 9 8 6 4 3 3 4 5 6 8 9 9 8 8 8 9 9 8 6 5 6 7 9
11 10 11 11 15 16 17 20 22 20 18 16 15 16 14 13 12 10 9 7 6 4 3 2 4 5 7 7 8 9 10 10 9 8 8 7 6 4 4 5 7 8 9
12 13 16 18 20 21 20 19 18 16 15 16 15 14 12 10 9 8 7 5 3 3 3 4 5 5 6 7 8 9 8 9 9 8 7 5 4 4 5 6 8 10 10
17 19 20 21 21 19 18 16 15 14 14 14 13 11 9 8 7 5 4 2 1 4 5 6 7 8 8 11 11 12 11 10 9 7 6 4 4 5 7 9 10 11 12

GFSMW_850_spd_069.txt.gz
Wind_Speed
16 16 17 18 18 19 21 21 21 21 20 20 27 26 30 28 27 26 21 22 23 23 25 26 23 24 25 28 28 24 24 24 20 18 21 21 23 23 22 21 21 21 20
17 15 16 16 18 19 20 23 23 22 23 23 25 30 27 30 33 34 34 33 30 30 30 28 29 28 29 27 28 29 28 27 28 28 20 12 21 27 27 25 24 23 23
13 14 14 14 18 20 20 20 21 23 25 25 24 26 23 20 27 33 37 40 38 35 35 34 34 32 31 32 32 31 34 34 33 33 23 10 13 13 19 27 27 24 25
5 3 2 2 9 15 22 27 27 26 27 28 28 26 26 27 27 28 32 35 38 38 37 38 38 35 34 35 36 35 36 36 37 34 35 30 16 10 9 17 24 24 25
4 4 4 4 3 0 5 12 20 26 28 28 30 25 27 26 24 24 24 27 29 33 34 36 36 38 37 38 39 38 40 42 39 40 38 39 38 29 19 12 17 21 24
5 5 5 5 5 5 4 3 1 7 16 24 28 28 28 22 23 22 23 22 25 28 33 33 34 33 38 38 40 41 42 44 42 43 42 42 42 45 42 31 23 23 25
5 4 3 2 3 3 4 3 3 3 3 7 14 21 25 24 22 21 22 21 24 28 27 29 30 30 31 35 38 39 42 45 44 45 45 45 43 43 40 36 34 26 26
3 3 3 3 3 5 4 4 3 4 4 5 6 8 15 21 24 20 20 19 20 20 24 27 27 26 26 28 32 35 37 41 42 40 43 45 46 45 41 37 34 32 27
2 3 4 4 3 4 5 6 6 7 8 8 9 8 7 10 12 15 18 18 20 21 23 23 24 23 23 24 25 30 34 38 38 36 39 43 43 40 39 43 38 27 20
1 3 4 4 3 3 5 5 6 7 8 9 11 12 14 14 14 14 14 16 15 17 21 21 24 25 24 23 23 25 28 30 33 36 35 36 37 38 38 32 30 25 19
1 3 3 2 3 3 4 5 6 7 8 7 7 7 8 10 12 13 14 15 16 18 19 21 23 24 25 23 22 22 24 26 28 30 31 30 30 30 25 22 16 14 14
1 1 1 2 3 3 3 3 4 5 6 6 5 3 2 3 5 7 9 11 13 16 18 20 22 23 22 21 19 20 22 23 25 25 25 24 21 17 14 11 11 9 13
2 1 1 1 2 1 2 3 4 5 5 4 4 5 4 4 4 5 7 10 12 14 16 17 18 17 15 16 17 19 19 19 20 18 17 16 14 9 7 6 13 11 12
4 4 3 2 1 1 2 3 4 4 4 4 3 3 3 5 6 7 8 10 12 12 11 11 12 12 13 13 14 13 13 14 13 12 10 10 10 9 9 10 11 10 10
5 5 5 3 2 1 2 3 3 4 4 4 3 4 4 3 3 3 4 6 6 6 6 7 7 7 7 5 5 5 8 9 10 9 8 9 8 8 8 8 8 8 7
7 6 5 4 2 0 1 0 2 3 4 3 2 2 1 1 3 4 3 4 5 6 6 5 3 1 3 7 8 6 7 7 6 6 9 8 7 7 6 4 7 8 8
7 7 7 6 5 3 3 3 2 1 3 3 2 2 4 7 8 7 8 9 9 8 9 9 7 7 9 8 8 8 6 8 7 6 4 2 2 2 3 5 7 9 8
8 7 7 6 6 4 4 3 2 2 3 4 5 5 7 8 10 10 13 14 13 12 13 12 9 9 10 7 6 5 2 2 2 3 4 3 4 5 6 6 8 9 10
6 6 6 7 7 7 4 3 3 4 5 5 7 8 9 13 13 14 16 15 13 14 14 13 11 9 9 6 5 6 5 3 1 1 3 5 7 7 7 7 9 9 8
6 7 8 8 7 6 5 5 5 6 8 8 11 13 15 16 16 17 18 16 14 13 11 10 10 10 9 8 6 5 7 6 6 6 8 7 8 9 10 9 8 10 8
7 9 9 7 7 6 7 7 9 11 12 14 16 17 18 18 17 16 15 12 10 10 10 9 9 7 6 5 5 5 5 6 7 7 9 10 10 11 10 9 8 8 7
8 9 8 8 8 8 9 11 13 15 16 18 18 18 18 16 14 12 12 11 10 8 7 5 4 4 5 7 9 9 9 9 8 9 10 11 10 10 8 6 5 5 6
8 9 10 10 9 9 12 15 18 18 19 19 17 16 15 15 13 11 10 9 7 4 3 3 4 5 6 8 8 10 11 11 10 10 11 10 9 7 6 4 5 6 7
10 11 10 11 12 15 16 18 21 21 18 16 15 15 13 12 10 9 8 5 4 2 2 3 4 6 7 8 9 11 11 12 9 10 9 9 7 6 4 4 5 7 9
11 13 13 13 17 19 20 22 22 19 16 15 15 13 12 10 9 8 6 3 1 1 3 4 6 6 7 10 11 11 11 11 11 10 9 7 6 4 5 6 8 9 10
13 14 15 17 20 22 22 22 20 17 16 15 13 12 10 9 7 5 4 1 1 3 4 6 8 9 10 11 12 12 12 11 10 9 7 6 6 6 7 8 9 11 12

GFSMW_850_spd_072.txt.gz
Wind_Speed
16 17 19 16 17 20 20 20 18 21 18 20 22 22 26 25 24 23 22 22 22 23 23 25 25 25 26 28 28 26 26 27 25 22 23 24 26 26 25 24 23 24 24
15 14 17 19 19 18 20 23 24 21 23 25 23 26 26 25 27 29 29 27 26 26 27 27 28 29 29 30 29 30 29 29 29 27 24 23 28 30 29 28 27 26 26
12 8 7 10 16 20 19 19 21 27 24 25 25 25 25 27 26 27 30 32 32 31 31 31 31 32 30 32 34 32 32 33 33 34 28 12 16 16 22 26 30 29 30
12 8 10 13 17 21 26 28 27 26 26 27 27 27 26 28 31 31 30 30 30 31 35 34 36 36 35 34 33 34 35 34 36 35 38 33 16 13 11 19 23 28 32
9 5 5 3 3 3 8 15 24 29 29 31 32 32 32 22 19 23 24 25 29 30 29 27 32 35 35 35 34 35 36 37 37 40 39 38 37 26 22 20 23 26 29
9 7 8 4 3 4 4 4 1 4 13 23 28 29 31 32 29 22 22 23 23 21 23 24 26 25 34 34 33 35 37 39 40 41 44 43 40 43 37 27 24 24 25
11 9 7 3 2 2 3 2 3 0 1 3 8 17 22 25 26 21 19 19 21 22 23 22 25 24 23 26 29 33 36 38 40 42 45 46 42 40 40 39 34 24 26
10 7 5 4 1 2 3 3 2 4 5 5 5 5 10 16 21 25 23 19 17 16 19 21 23 23 23 24 23 25 32 35 37 39 42 43 43 41 42 40 36 34 28
8 6 4 3 2 4 6 5 5 7 8 8 8 9 10 11 13 18 23 24 24 24 23 23 25 23 20 19 19 20 23 24 29 33 37 39 41 40 39 38 38 36 25
8 4 3 2 3 4 3 5 5 6 7 8 9 10 12 13 12 12 15 17 19 20 21 22 21 20 21 20 19 18 20 22 24 28 30 32 34 37 37 34 32 28 25
7 5 3 2 1 2 2 3 3 4 5 5 5 5 5 7 10 12 12 14 15 15 16 18 18 17 17 17 17 16 17 19 21 22 24 27 29 30 29 26 23 19 17
7 5 5 3 1 2 2 2 2 3 3 2 6 4 4 6 8 9 10 12 13 12 12 13 14 16 16 16 17 16 14 17 19 20 21 22 23 22 19 15 11 10 10
6 5 4 4 4 2 2 2 2 3 3 3 4 5 6 5 5 5 5 6 7 9 10 12 14 13 13 12 12 13 14 16 17 18 16 14 13 12 9 6 6 6 6
8 8 7 6 5 4 3 3 3 3 2 2 2 2 3 4 5 5 5 6 8 10 10 10 9 8 8 9 10 10 9 8 8 7 6 6 6 4 3 4 7 7 7
9 10 10 8 6 4 3 3 2 1 1 2 2 2 2 2 2 1 1 2 1 1 2 4 6 5 5 5 3 3 2 1 2 3 4 3 3 6 5 5 4 4 3
12 12 13 10 8 7 4 3 2 2 1 1 1 2 1 1 2 1 0 1 3 6 6 7 7 7 9 10 8 6 5 5 5 5 5 5 5 5 4 4 4 6 5
13 13 11 12 12 8 5 4 4 3 2 1 1 1 2 3 4 3 5 8 11 12 13 14 12 13 12 10 8 7 4 3 2 2 2 4 3 5 4 5 6 7 6
12 12 12 11 10 9 8 6 6 4 3 3 4 4 4 5 6 10 13 15 16 16 16 15 13 10 11 9 8 7 4 2 0 1 4 4 1 3 3 6 7 7 8
10 11 10 10 11 11 9 8 6 5 5 5 4 4 6 9 13 15 17 17 16 16 16 15 12 10 10 7 6 4 4 4 4 4 4 5 5 6 8 7 8 8 8
11 12 12 10 11 12 9 8 8 8 7 7 8 9 11 13 16 17 18 17 15 14 13 12 11 10 8 7 5 5 5 5 6 7 7 6 7 9 9 9 9 9 8
10 10 9 11 11 10 9 9 9 9 9 11 13 14 15 16 17 17 15 12 12 11 11 9 7 6 6 6 6 7 6 7 7 7 8 10 10 9 9 9 7 7 7
8 9 11 11 9 10 10 10 10 11 13 15 16 18 16 15 15 13 13 11 9 8 7 6 5 6 7 8 9 9 9 9 9 10 10 10 10 9 8 5 4 4 4
7 9 10 10 10 10 10 12 13 15 17 18 18 16 15 13 13 11 10 8 6 5 4 3 4 6 7 7 8 8 9 9 9 9 9 9 8 7 5 3 2 4 5
10 9 11 12 10 10 13 14 16 17 19 19 17 16 14 13 11 9 7 5 4 2 1 3 5 7 8 9 11 12 12 12 12 11 10 8 6 5 3 3 4 5 7
10 11 13 11 10 13 15 18 20 20 18 16 16 15 13 12 11 9 6 3 2 1 3 5 7 9 10 10 11 11 11 11 10 10 8 6 6 5 4 5 6 8 9
11 13 15 11 14 15 19 22 22 20 18 17 16 14 13 11 9 7 5 4 2 3 5 7 7 8 9 10 11 11 11 10 9 8 7 6 6 5 6 7 9 10 11

GFSMW_850_spd_075.txt.gz
Wind_Speed
21 18 18 16 18 20 13 12 15 16 21 20 19 28 32 27 24 24 23 21 21 20 20 20 22 24 25 25 25 25 24 25 25 25 27 28 28 30 31 30 29 29 27
10 14 15 16 20 22 25 23 21 16 19 21 21 21 22 24 26 25 25 25 26 26 25 25 24 24 26 27 27 29 30 29 27 28 28 26 31 36 36 34 33 33 31
9 8 12 16 18 20 21 23 26 27 21 19 22 23 24 24 25 26 29 33 30 29 29 29 30 29 29 30 30 30 33 33 34 33 28 14 21 23 27 33 36 36 35
14 12 14 14 15 17 21 25 27 30 31 27 24 26 30 30 30 29 26 25 27 31 34 33 33 31 33 34 33 34 34 35 36 37 39 39 29 18 13 21 25 31 34
12 11 11 12 13 14 18 24 27 28 28 30 32 29 28 24 21 20 21 22 22 22 21 21 22 25 34 33 33 34 35 32 36 38 39 42 43 42 33 28 26 23 27
12 8 6 6 6 5 6 7 10 20 30 32 29 32 31 27 24 21 15 21 21 20 21 20 17 17 18 27 31 33 36 35 35 37 38 43 42 41 45 37 36 28 27
10 11 11 6 6 6 6 6 6 6 8 12 21 30 33 33 32 31 22 19 19 19 20 21 21 21 20 19 21 26 31 34 33 36 38 37 44 44 39 35 36 35 34
16 15 11 8 7 6 6 6 7 6 6 6 7 8 11 16 20 23 26 22 21 22 24 22 21 18 18 20 20 21 22 23 27 31 35 35 37 37 40 39 38 33 29
16 13 12 11 9 7 6 6 7 7 8 8 9 10 11 11 12 16 21 24 25 25 23 21 19 18 20 22 22 20 19 21 23 25 26 29 32 36 37 35 35 34 27
15 13 11 10 8 6 6 6 6 7 7 7 8 11 13 15 15 14 15 18 22 24 24 24 24 25 25 25 19 19 19 19 19 20 22 24 25 26 27 27 29 27 28
15 12 10 8 6 5 5 5 5 5 6 7 8 8 10 11 12 14 15 15 16 17 18 19 19 19 19 18 17 17 17 17 15 15 18 21 24 25 25 24 23 21 19
14 11 9 7 6 4 3 4 4 4 5 7 8 8 9 9 9 10 11 12 13 14 14 14 14 14 15 15 15 15 14 14 14 14 16 18 20 20 18 18 16 13 12
13 12 10 9 6 4 4 4 4 4 5 6 7 8 9 8 7 7 7 7 6 8 8 9 11 11 11 12 12 9 8 10 12 13 14 15 14 12 9 7 6 6 7
14 12 11 9 8 7 6 5 5 6 6 6 6 6 6 7 8 7 8 8 8 8 7 7 6 6 6 8 6 5 5 7 7 7 6 6 5 5 4 3 6 6 6
15 14 13 12 9 9 7 6 6 6 5 4 5 5 5 5 5 4 4 4 4 3 3 2 3 2 1 1 2 2 2 2 1 1 2 2 3 4 4 5 5 6 5
16 15 15 14 12 10 8 8 7 6 5 5 4 4 4 5 5 5 4 4 3 3 3 2 5 7 8 11 10 9 7 7 5 3 1 1 3 5 7 7 7 4 3
18 17 16 16 15 12 11 9 8 7 6 6 5 4 4 5 5 5 5 7 7 7 9 12 12 12 14 12 12 11 8 6 5 3 1 2 3 5 6 3 2 3 6
16 16 16 16 16 14 13 11 9 8 7 7 5 4 3 5 7 8 10 12 12 13 14 14 12 12 14 12 11 9 6 4 2 1 1 2 3 4 3 5 6 7 6
15 16 15 14 15 16 15 13 10 9 8 7 5 5 7 8 11 13 14 15 15 14 14 13 11 10 11 9 7 6 4 3 2 3 4 4 5 5 7 6 7 7 7
15 16 15 13 14 15 14 12 12 10 8 8 7 7 9 11 14 15 16 17 14 12 11 11 10 9 7 5 4 3 4 5 5 6 6 6 7 9 9 8 8 8 7
13 13 13 14 15 15 14 13 12 10 9 9 9 11 13 16 17 17 16 13 11 10 9 8 7 5 5 4 5 6 7 7 7 8 8 8 8 8 9 9 6 6 6
11 11 13 14 13 13 13 13 13 12 11 12 13 15 17 18 16 14 14 12 10 7 6 4 3 4 5 6 7 7 7 7 8 8 9 9 9 8 8 6 4 4 4
11 11 12 14 15 14 14 14 13 13 15 16 17 18 17 16 14 13 12 10 8 5 3 1 3 4 5 6 7 8 9 8 8 7 8 7 7 6 5 3 3 4 4
11 10 13 15 15 14 14 14 14 17 18 18 19 18 17 16 14 13 10 8 5 3 1 2 3 4 5 7 10 11 11 10 10 9 8 7 6 4 4 3 4 5 6
10 11 13 15 14 12 14 17 18 19 20 20 19 18 16 14 13 11 8 7 5 3 3 3 4 6 7 8 10 10 10 9 8 8 7 6 6 5 5 5 6 7 9
12 12 13 13 12 13 16 19 20 20 21 21 20 18 16 14 13 11 9 7 6 5 4 4 5 7 7 8 9 10 9 8 8 8 7 7 7 6 6 7 8 10 11

GFSMW_850_spd_078.txt.gz
Wind_Speed
18 15 17 19 18 17 15 16 17 19 21 24 33 34 31 29 26 24 23 22 21 21 21 20 21 23 24 24 24 25 25 25 23 24 27 29 30 31 33 33 33 33 31
17 25 23 25 25 21 21 19 19 18 19 21 23 23 33 33 30 28 26 25 24 24 23 23 23 23 24 25 26 28 29 29 27 28 29 29 31 35 36 36 36 36 34
14 13 20 22 24 25 24 22 20 20 21 21 22 22 22 25 29 33 30 28 27 27 27 27 28 28 27 27 27 28 30 32 31 32 30 13 19 23 24 24 29 35 36
18 15 14 17 20 22 25 26 25 24 23 23 23 25 27 28 27 27 26 27 27 29 31 31 30 30 31 33 33 33 34 33 36 36 35 38 38 21 20 24 18 19 30
21 19 16 16 15 16 19 22 25 27 29 29 29 28 26 28 29 28 28 27 25 24 25 25 26 27 29 32 35 36 36 35 36 37 34 35 38 41 41 35 33 29 24
19 15 12 12 15 18 19 21 26 29 32 33 31 29 28 28 27 28 30 30 29 25 20 21 21 21 22 21 21 25 26 30 30 32 32 31 32 33 37 41 46 45 40
21 16 12 11 11 11 11 11 11 12 15 23 30 31 29 28 28 28 27 25 26 24 22 22 21 20 18 18 19 17 20 24 29 31 31 32 31 34 36 38 39 40 36
18 15 14 12 10 10 9 8 8 8 8 9 11 13 18 24 29 31 30 28 26 23 23 23 22 21 19 20 20 20 20 22 23 24 25 26 27 27 27 29 35 36 34
21 19 15 12 11 9 8 8 9 9 10 10 11 11 12 12 13 15 17 18 20 22 20 20 21 21 18 19 18 21 23 21 19 20 22 23 22 24 24 27 29 32 27
21 17 15 13 10 9 8 8 9 10 10 11 11 13 14 15 14 13 13 14 16 19 20 20 21 22 22 23 25 24 22 20 18 20 21 22 21 22 21 23 21 22 24
20 16 14 11 10 9 7 6 8 8 9 10 10 10 11 12 13 14 15 15 16 16 17 19 19 19 18 19 21 20 18 17 16 16 16 16 17 17 20 21 21 20 19
18 16 14 12 10 8 7 6 7 7 8 8 8 9 10 11 11 11 12 13 14 14 14 14 14 15 15 14 14 14 14 14 13 12 11 11 13 15 18 19 17 15 14
18 16 14 13 10 9 7 6 6 7 7 8 9 10 10 10 9 8 7 7 8 8 9 9 10 11 11 11 11 11 10 8 6 7 8 10 11 11 11 12 11 10 10
19 17 15 14 11 9 8 7 7 7 8 9 9 9 9 9 9 9 8 8 8 8 8 9 9 9 8 7 7 6 6 5 4 4 6 5 5 5 5 6 7 7 7
19 19 18 15 13 11 10 9 8 8 7 8 8 8 8 8 8 8 8 8 8 7 6 6 6 5 4 4 3 2 3 2 1 1 1 1 1 3 4 4 5 7 8
22 19 17 16 15 13 12 11 10 9 8 8 7 7 7 7 8 7 7 6 6 5 5 5 4 5 5 6 7 7 5 4 4 2 1 1 1 2 3 5 7 7 6
23 21 19 17 16 15 13 12 11 10 9 8 7 7 7 7 7 6 6 7 7 7 7 9 9 10 12 12 11 10 6 4 3 2 1 2 3 4 6 6 6 6 6
22 21 19 18 17 16 15 13 12 11 10 9 8 8 7 7 7 8 9 9 10 11 13 13 12 12 13 11 9 8 4 2 1 2 3 3 4 6 6 6 7 7 8
19 18 17 17 16 16 15 14 14 12 10 9 9 8 7 8 9 11 12 13 13 14 14 13 12 10 9 8 6 4 2 2 2 4 5 6 7 8 8 8 8 9 9
16 16 16 16 15 15 15 14 14 12 11 10 9 8 8 10 12 13 15 15 14 13 13 12 10 7 5 4 2 3 4 5 5 6 7 8 8 9 9 8 8 8 9
13 14 14 14 14 15 15 15 15 13 11 11 10 9 10 12 14 16 16 15 13 12 11 8 6 4 2 1 2 3 5 6 6 6 7 8 8 8 9 9 7 6 7
13 13 14 14 15 15 15 16 15 13 11 11 11 12 14 16 18 17 15 14 12 10 8 6 3 1 1 3 4 5 5 6 7 6 7 7 7 6 6 6 5 5 5
13 13 13 14 15 16 16 16 15 15 14 14 14 16 18 18 16 15 14 13 11 8 5 3 1 2 3 4 5 6 7 7 7 7 7 7 7 7 6 5 5 6 6
14 12 13 15 16 17 16 17 16 15 15 17 18 19 20 19 17 16 14 11 8 6 4 3 3 4 4 5 6 7 8 9 9 8 7 7 6 6 6 6 6 7 8
14 14 13 14 16 16 17 18 18 18 19 19 20 21 20 18 17 15 12 9 8 6 4 4 5 6 5 6 7 8 9 8 8 7 8 7 7 7 7 7 8 9 10
14 14 13 13 15 16 16 18 20 20 21 21 23 22 21 19 17 14 12 10 8 7 7 7 7 6 6 6 8 9 8 9 9 8 8 8 8 8 8 8 9 11 13

GFSMW_850_spd_081.txt.gz
Wind_Speed
17 16 17 20 20 18 18 19 22 23 30 25 24 27 28 26 24 23 20 19 19 19 19 18 18 19 21 21 21 21 22 22 23 23 26 26 26 28 29 30 31 32 31
25 22 19 20 22 21 19 20 21 22 22 25 26 31 30 30 29 28 26 23 22 22 22 21 21 22 23 23 23 25 25 25 26 28 29 28 29 29 28 27 27 29 33
27 27 23 23 22 25 23 22 22 22 22 22 24 26 26 28 32 34 33 30 25 24 25 24 25 26 26 26 25 26 27 29 29 30 29 15 17 20 20 22 22 22 25
20 18 17 18 22 26 27 24 21 23 24 24 25 26 29 28 27 26 28 30 30 28 27 27 27 27 27 28 29 30 31 31 34 33 33 33 34 30 24 25 24 31 29
21 20 16 17 18 19 21 23 23 23 24 24 25 26 27 28 28 28 28 26 27 28 28 28 27 26 27 28 28 28 31 32 34 36 35 32 34 34 37 32 27 28 29
24 22 19 17 16 17 17 18 20 22 24 25 25 27 29 29 28 28 30 30 29 28 27 27 25 21 20 20 20 20 22 20 25 25 25 26 24 27 25 28 32 32 34
28 25 22 19 17 17 17 19 20 21 23 26 28 29 27 26 28 27 27 27 28 28 26 26 25 21 23 21 22 18 20 19 18 20 24 25 25 24 23 25 28 29 30
30 26 20 17 15 13 13 14 14 14 14 13 13 15 18 23 26 28 28 27 28 28 28 26 27 25 25 23 20 20 23 23 21 21 22 23 24 24 25 25 26 29 29
28 25 21 17 14 12 11 10 10 10 10 9 9 10 9 9 11 13 15 17 19 20 20 21 23 24 24 21 20 20 22 22 24 24 22 21 22 25 23 23 24 23 24
26 23 19 16 14 12 10 10 10 10 10 10 10 11 12 13 13 12 12 12 13 15 17 18 20 20 20 20 21 22 24 22 21 21 20 22 22 22 20 20 21 21 22
25 22 18 15 12 10 9 9 8 8 9 9 9 10 11 12 13 14 15 15 15 15 16 18 20 21 22 22 22 22 22 20 18 17 16 16 17 14 14 14 16 18 19
24 20 17 14 12 10 9 7 6 6 7 7 8 9 10 11 12 13 13 14 15 15 16 16 16 16 16 16 16 16 15 14 14 13 11 12 11 11 12 13 13 14 13
22 19 17 15 12 11 9 7 6 6 7 7 8 9 10 11 11 11 11 11 11 12 13 14 14 13 13 13 13 13 13 11 8 7 8 8 7 8 10 9 8 8 8
22 19 17 15 13 11 9 8 7 7 8 8 9 9 10 9 10 10 10 10 9 10 10 11 12 11 11 10 10 9 8 6 5 7 7 6 5 4 3 3 4 6 7
20 20 18 16 15 14 12 10 9 8 8 8 8 8 8 8 9 9 10 10 10 10 11 10 9 8 8 7 6 6 5 5 5 4 3 2 2 2 2 3 5 6 7
23 20 18 17 16 14 12 12 10 9 9 9 8 7 7 8 9 9 9 8 8 7 7 6 6 6 6 7 6 6 6 6 5 3 1 0 1 2 3 5 6 7 7
23 22 20 18 17 15 14 12 11 11 10 9 8 8 8 9 8 8 8 8 8 7 7 7 8 9 10 10 9 9 7 5 4 2 1 2 4 5 6 6 6 7 8
22 21 19 18 17 17 16 15 13 12 11 10 9 9 9 8 8 8 8 8 8 8 10 11 11 11 12 11 9 7 5 3 2 2 3 4 5 7 7 8 8 9 9
19 19 18 17 17 18 16 15 14 13 12 11 9 9 9 9 9 9 10 10 11 12 13 13 12 10 10 9 7 4 2 2 2 4 5 6 8 9 8 9 9 9 9
16 16 17 18 18 17 16 15 14 14 13 12 9 9 9 9 10 11 12 13 13 13 13 13 11 8 6 4 3 1 2 3 4 5 6 7 8 9 9 9 8 8 9
13 14 15 16 15 16 16 16 15 14 12 12 10 10 9 9 11 13 14 15 14 13 12 10 8 5 3 1 1 2 3 4 4 5 6 8 8 8 8 8 7 7 6
11 12 13 14 15 15 15 15 15 13 13 12 11 11 11 12 15 16 17 16 14 12 10 8 5 2 1 1 2 4 4 5 5 5 6 7 7 7 8 7 7 7 6
10 11 12 13 14 15 15 16 15 15 14 13 12 13 13 15 17 18 17 16 14 11 8 6 4 2 2 2 4 6 6 5 5 6 6 7 6 7 7 7 7 6 7
12 12 13 14 14 15 16 16 16 15 15 15 15 15 16 19 19 18 17 14 12 10 8 5 4 3 4 4 5 6 7 7 7 7 7 8 7 7 7 7 8 8 9
12 13 13 12 13 15 16 17 17 17 17 16 17 18 20 21 19 17 15 13 11 9 7 6 5 5 5 6 7 6 7 7 8 7 8 8 8 8 9 9 9 10 11
11 13 13 13 13 15 16 17 18 19 19 19 20 21 23 21 20 18 17 15 13 11 9 8 7 7 7 8 7 7 7 7 8 8 9 10 10 10 11 11 11 12 14

GFSMW_850_spd_084.txt.gz
Wind_Speed
19 7 16 18 17 17 17 18 22 24 24 25 24 26 28 25 24 22 19 17 17 17 16 15 15 15 17 16 16 17 18 20 20 21 23 23 22 23 23 24 24 23 23
35 21 21 22 24 21 19 19 20 21 24 25 25 22 22 25 26 24 22 22 21 20 18 18 17 17 18 19 19 20 21 22 22 23 25 26 26 24 22 19 15 16 18
31 28 27 23 22 26 24 22 21 21 20 21 21 24 23 25 27 28 28 27 25 23 22 21 20 22 22 23 23 23 24 25 25 25 25 13 15 20 24 23 26 25 20
41 37 31 30 26 26 26 25 24 23 22 22 23 24 25 27 27 24 25 27 28 27 26 24 23 23 23 24 24 25 26 27 28 28 29 30 32 28 21 23 24 24 24
25 21 23 22 22 25 28 27 25 25 25 26 26 26 27 26 27 27 26 25 24 25 27 28 28 28 26 25 25 26 26 25 26 26 25 29 30 27 26 26 24 23 21
28 25 21 20 19 19 20 22 23 23 23 24 25 26 26 26 27 27 28 28 28 28 27 26 26 26 25 23 21 21 20 20 19 19 20 20 20 20 20 23 25 24 25
33 32 28 23 20 20 18 16 16 18 19 21 23 25 26 27 28 27 27 27 27 27 27 26 26 25 24 21 20 19 19 18 18 18 18 17 19 22 22 23 26 27 26
27 32 32 28 22 19 18 18 18 18 19 20 20 20 21 22 24 26 25 23 22 23 24 24 23 23 24 24 22 21 21 20 19 22 22 21 21 22 23 24 23 24 22
24 32 32 28 24 20 17 15 15 14 13 12 12 11 10 9 11 14 17 19 21 22 24 24 24 24 25 26 23 22 20 19 21 23 24 22 22 23 23 21 21 23 16
23 30 28 26 22 17 15 14 12 11 11 10 10 10 11 11 11 11 11 11 12 12 12 12 14 16 18 20 21 22 21 22 25 24 20 20 21 23 22 23 20 20 17
27 28 25 21 18 16 14 12 10 9 8 9 9 10 10 11 12 13 13 14 14 14 14 14 15 16 16 17 20 20 22 24 23 20 19 19 19 18 16 15 14 13 13
24 23 22 21 19 17 14 10 9 8 7 7 8 9 10 11 13 13 13 14 15 15 16 16 17 18 18 19 21 21 21 20 18 16 15 15 14 12 9 9 11 13 12
24 22 20 18 16 13 11 9 8 7 6 6 7 9 10 11 12 12 12 13 13 14 14 15 15 15 15 15 15 15 15 14 13 12 10 10 8 7 7 8 7 7 8
24 21 19 17 15 13 11 9 9 7 6 6 7 8 10 11 11 11 11 11 10 10 10 10 11 11 11 12 12 12 11 10 9 7 7 4 3 5 5 4 4 5 6
23 21 19 17 15 13 11 10 9 8 7 7 7 8 9 9 9 10 10 10 11 11 11 10 11 11 11 10 10 10 9 8 7 7 5 4 5 6 5 3 4 5 6
24 22 19 17 17 15 12 11 11 10 9 8 8 8 9 9 9 10 10 10 9 10 10 10 10 10 10 10 8 7 8 8 7 5 4 4 3 3 2 2 4 5 6
24 22 21 19 17 16 14 13 12 12 11 10 9 10 10 11 11 10 10 11 10 10 9 8 8 8 8 9 9 10 8 7 6 4 3 2 2 2 3 4 5 6 7
23 22 20 18 17 17 16 15 14 13 12 12 11 11 11 11 10 9 9 9 10 9 9 9 10 10 11 11 10 9 7 5 4 2 1 1 3 3 4 6 7 8 8
19 19 18 17 17 18 17 16 15 14 13 13 13 12 11 11 10 10 10 10 10 10 12 12 12 11 11 10 7 6 4 3 1 1 2 3 4 6 5 7 7 7 7
15 16 17 18 18 18 18 17 16 15 14 13 12 12 11 11 10 10 11 12 12 13 13 14 14 12 9 7 5 3 2 1 2 2 3 4 5 6 6 6 6 6 6
10 12 14 15 15 16 16 17 16 15 13 14 13 13 12 10 10 11 13 15 15 15 15 14 12 9 7 5 3 2 1 2 2 3 3 5 6 6 6 5 5 5 4
7 8 10 12 14 14 14 15 16 14 14 14 14 14 12 12 12 14 16 17 17 16 15 12 9 7 5 3 2 0 1 2 2 3 4 5 6 5 5 5 6 5 4
6 8 9 11 12 12 14 15 14 15 14 15 14 13 13 12 13 16 18 20 18 16 13 10 8 6 4 3 2 2 2 2 3 4 4 4 5 5 5 6 5 5 6
7 8 10 10 11 12 14 14 14 15 15 16 15 14 14 14 16 18 19 17 17 15 12 9 7 6 5 4 4 4 4 5 4 4 4 5 5 5 6 6 7 7 8
8 10 10 10 10 12 14 14 15 16 17 17 16 16 15 16 18 20 18 17 14 12 10 9 8 7 6 6 5 5 5 6 5 5 6 6 7 7 7 8 8 9 10
9 11 12 12 11 12 13 15 16 17 18 19 19 18 18 18 21 20 20 18 17 15 12 11 9 8 7 6 6 6 6 7 6 5 6 8 9 9 10 10 11 11 12

GFSMW_850_spd_087.txt.gz
Wind_Speed
19 9 4 11 14 18 20 18 17 18 20 23 24 24 24 22 21 19 16 15 15 15 15 13 13 14 16 14 14 15 15 16 15 17 19 19 18 18 18 18 16 14 11
19 13 8 11 14 13 12 11 17 18 17 24 22 21 21 23 23 21 20 20 20 19 19 17 17 17 18 17 17 17 17 17 17 18 20 21 22 23 17 17 20 17 19
22 15 13 13 14 14 18 21 20 22 23 24 23 22 22 23 23 23 23 24 22 20 21 21 21 20 21 22 19 20 20 20 20 21 19 12 11 16 18 20 22 20 20
31 29 25 22 18 20 19 24 23 22 22 22 21 22 21 21 20 19 18 19 20 22 23 23 23 23 22 22 21 19 20 22 24 23 24 27 27 21 17 18 17 23 19
32 31 30 25 28 25 25 24 25 25 24 23 22 22 22 21 21 20 21 21 21 21 21 22 24 24 24 24 22 23 23 24 24 23 23 24 25 21 24 21 16 16 17
34 31 30 29 22 23 26 28 27 27 26 26 25 24 23 24 23 23 23 23 24 25 25 23 24 23 24 24 23 22 22 22 22 20 19 18 17 17 16 18 21 19 18
36 33 34 39 26 21 22 23 25 26 23 22 22 22 22 23 23 24 25 25 26 26 26 26 26 26 25 24 24 23 22 20 20 18 17 15 16 17 18 19 20 17 20
31 36 39 38 33 25 22 21 21 22 21 20 19 20 22 24 26 27 28 28 28 26 26 26 26 25 24 24 25 24 22 20 19 20 18 17 19 21 21 22 17 20 20
15 24 32 34 31 28 26 23 21 19 18 18 19 21 21 19 18 18 19 20 21 23 25 26 26 26 26 24 23 24 23 22 19 17 17 19 24 23 20 20 18 18 14
19 22 26 32 30 27 24 21 18 16 14 14 14 14 13 13 13 13 12 12 13 13 14 15 14 15 14 15 17 18 19 18 19 21 23 25 23 20 19 19 19 17 14
12 18 23 27 25 23 20 18 16 15 14 13 12 11 12 12 13 14 15 15 15 14 15 14 13 11 12 14 16 18 17 18 20 23 26 21 19 18 17 16 15 14 14
14 21 25 24 20 17 16 15 14 13 13 11 11 11 11 11 12 13 14 14 15 16 16 16 16 16 16 17 17 18 21 22 24 23 21 17 16 15 15 14 14 14 12
20 22 22 21 19 17 15 13 13 12 11 10 9 9 9 10 11 13 13 13 14 14 15 15 15 15 16 16 18 18 18 18 17 17 16 14 13 12 11 11 8 6 6
22 22 22 21 20 17 14 13 13 12 10 8 7 7 8 9 11 12 12 12 12 12 12 12 12 12 13 13 14 14 14 15 15 14 12 10 8 7 6 4 4 4 5
22 22 21 20 17 16 16 16 14 12 10 8 7 7 7 8 9 11 11 11 11 11 11 11 11 11 12 12 12 12 12 11 10 9 8 7 7 6 5 4 5 5 6
23 22 21 20 20 18 17 16 14 12 11 10 8 8 8 9 9 9 10 11 11 11 11 12 11 12 12 12 11 10 9 9 9 8 7 6 5 3 4 5 5 5 5
24 23 23 22 19 17 16 15 13 13 12 12 10 10 10 10 10 11 11 12 12 11 11 9 9 10 9 9 9 9 9 9 9 8 7 5 4 4 5 5 4 4 5
23 23 21 21 19 17 17 16 16 14 14 13 13 12 11 11 11 10 9 9 10 11 11 10 9 9 9 11 11 11 10 9 8 7 5 5 4 5 4 4 5 5 5
19 20 18 18 17 18 18 19 17 16 15 14 13 13 12 11 11 10 9 9 10 11 11 10 10 10 12 12 11 10 9 8 7 5 5 5 4 4 4 3 4 4 5
14 15 16 17 19 20 20 20 19 17 15 14 14 14 13 12 11 9 10 10 11 11 12 12 13 13 12 11 9 9 8 6 5 5 4 3 3 3 2 2 2 2 3
9 10 12 15 16 18 19 19 18 17 13 15 15 15 13 13 11 9 11 13 13 13 14 15 15 13 11 9 8 6 6 6 5 5 4 3 2 2 2 2 1 1 2
6 8 9 11 13 15 16 16 16 13 15 15 15 14 13 13 13 12 13 15 16 16 16 16 14 12 10 9 8 6 6 5 5 5 4 3 2 2 1 1 2 2 2
3 4 6 9 11 12 13 14 13 15 16 16 15 14 14 14 13 14 16 18 18 18 18 16 14 12 10 9 7 5 5 4 5 4 3 2 2 3 2 2 2 2 3
3 5 6 8 9 10 11 13 14 15 15 15 15 15 15 14 14 15 16 19 20 20 19 17 14 12 11 10 8 6 5 4 4 3 3 3 3 3 3 3 3 4 5
8 5 7 7 8 10 10 12 14 15 16 17 16 16 15 15 15 16 17 19 18 17 15 13 13 12 10 9 9 7 6 5 5 4 5 5 4 4 4 4 5 6 6
8 9 9 10 10 11 10 11 13 15 16 18 18 18 16 17 16 17 20 22 20 19 18 17 14 13 12 11 9 8 8 7 6 7 7 6 5 5 5 5 6 7 8

GFSMW_850_spd_090.txt.gz
Wind_Speed
23 17 17 16 19 19 20 19 19 18 16 16 21 22 24 24 23 21 18 16 16 15 15 14 14 15 16 15 15 15 15 15 14 14 15 15 15 16 16 14 12 11 15
20 19 19 13 17 20 19 19 18 18 17 18 17 17 20 21 24 24 21 20 17 17 17 18 17 18 18 18 18 18 18 18 18 14 11 10 10 12 12 13 13 14 16
22 17 16 15 13 13 16 17 19 17 13 10 12 16 21 22 24 27 25 23 21 21 21 22 21 21 21 21 21 22 21 20 21 19 15 9 9 12 13 16 18 18 16
22 17 16 16 12 14 12 16 19 18 16 23 13 22 23 24 23 23 21 19 20 21 21 21 21 22 23 23 23 23 21 21 22 23 23 22 22 19 14 14 16 19 18
20 20 23 18 16 15 20 14 14 22 24 22 16 27 27 29 28 26 27 22 20 19 19 20 21 22 22 22 23 23 22 23 23 24 23 22 23 23 22 20 17 16 15
22 20 16 21 21 16 19 23 21 19 21 25 26 26 25 25 25 25 23 21 20 21 21 21 22 21 22 23 23 24 25 24 24 24 23 22 20 18 16 19 18 15 17
24 25 24 27 26 23 17 17 25 27 26 24 25 26 27 27 28 25 22 22 22 23 24 25 26 26 25 25 25 26 26 25 24 23 20 19 18 16 15 18 16 18 17
25 25 24 26 32 28 21 19 20 23 24 26 23 22 23 23 23 24 25 25 25 26 26 27 27 27 27 27 27 27 26 24 24 22 21 20 22 19 17 21 20 17 18
18 25 24 27 30 29 33 29 25 24 22 22 21 21 21 22 23 24 25 25 26 26 25 25 25 25 25 25 25 25 23 23 24 22 22 22 20 21 21 23 20 17 12
14 14 17 21 27 29 27 26 24 23 21 19 18 18 19 20 20 20 19 18 17 16 17 19 21 22 24 25 26 26 25 24 23 22 21 21 21 23 23 20 18 18 18
9 14 15 15 22 28 26 25 23 20 18 18 17 16 16 16 17 17 17 16 16 16 16 16 16 16 15 13 14 15 16 18 20 22 22 21 23 24 20 19 17 16 15
7 10 14 17 21 25 22 19 17 16 15 14 15 15 14 14 15 16 17 17 18 18 18 18 18 17 16 15 16 17 17 20 20 22 22 25 23 20 17 15 14 14 14
9 13 15 17 20 20 19 17 15 13 13 13 12 13 12 12 12 14 15 16 17 18 19 18 18 18 18 19 20 22 21 22 23 23 23 20 19 17 14 12 11 10 9
12 15 16 17 19 19 18 16 15 15 14 14 12 11 9 11 12 13 14 14 15 16 16 17 17 17 17 18 19 20 21 21 20 20 19 17 15 11 9 8 7 6 7
14 15 17 18 18 16 15 15 14 14 13 12 11 10 10 10 11 12 13 14 14 14 14 14 14 14 14 16 16 16 17 18 17 16 14 12 10 9 8 8 7 7 7
15 15 18 18 17 17 16 15 15 15 14 13 12 11 11 10 11 12 12 14 14 15 15 14 14 14 14 15 15 15 14 13 12 12 11 11 9 9 10 10 8 8 7
17 19 20 19 17 16 16 16 16 15 15 14 14 13 12 12 12 13 14 15 16 15 15 14 14 14 14 14 15 14 12 11 12 12 10 10 9 8 8 7 6 6 7
18 19 19 18 17 16 16 16 17 16 16 15 15 14 14 14 14 14 15 16 14 14 15 14 12 12 11 12 13 12 12 12 12 12 11 9 8 7 7 6 6 6 7
15 17 18 16 16 16 17 18 19 18 17 17 15 15 15 15 15 15 14 14 14 13 13 12 11 11 11 12 13 12 12 12 12 10 9 8 7 7 7 7 6 6 5
13 15 15 16 17 18 19 20 21 20 19 17 16 16 16 16 16 15 14 12 13 12 11 11 11 12 12 13 12 12 11 11 10 10 9 9 8 7 7 6 5 5 4
11 12 13 15 17 19 20 22 22 21 17 17 17 18 18 17 17 15 14 12 12 12 12 13 14 15 14 13 11 11 11 11 10 10 9 8 7 6 6 5 5 5 5
5 7 7 10 13 16 17 20 20 17 17 18 18 18 18 17 16 16 15 14 14 15 15 16 16 16 14 13 11 10 11 11 11 10 9 8 6 6 6 5 5 5 5
1 2 4 6 9 11 13 15 14 16 18 18 19 19 18 17 16 16 16 17 17 18 17 19 18 16 14 13 11 10 10 10 9 9 9 8 7 5 5 5 5 6 6
5 2 3 5 7 8 10 12 14 15 17 18 19 18 18 17 17 16 17 18 19 20 21 21 19 17 15 14 12 11 9 9 9 9 8 8 7 7 6 6 6 7 7
3 4 4 5 7 9 10 12 13 15 17 18 18 19 18 18 17 17 17 17 19 20 21 20 19 17 15 12 12 12 11 10 10 9 9 9 8 8 8 8 8 8 9
6 8 8 10 10 11 12 12 13 13 15 17 19 19 18 19 18 18 17 18 19 20 21 20 19 17 15 15 13 13 13 12 11 11 11 10 10 10 10 10 10 10 10

GFSMW_850_spd_093.txt.gz
Wind_Speed
23 23 15 19 18 20 17 17 21 20 18 18 21 25 24 22 20 17 17 14 12 12 13 12 11 13 13 12 12 12 14 14 12 13 14 13 13 14 13 12 9 9 13
21 26 16 16 22 23 21 20 17 18 19 16 16 19 20 20 19 20 18 17 16 16 15 15 15 15 15 16 16 16 16 16 14 12 8 9 8 12 11 9 12 11 12
20 26 18 13 21 24 23 22 21 17 18 18 16 18 18 15 15 16 16 18 19 18 20 19 18 19 19 19 19 20 20 19 17 18 13 6 7 8 11 14 13 15 18
19 21 18 15 19 22 22 22 24 23 20 18 16 16 13 14 14 11 14 15 14 18 22 22 24 23 23 24 24 23 22 22 23 23 21 21 19 12 12 14 14 17 18
20 25 22 17 21 20 22 19 18 19 21 17 21 12 13 13 13 10 13 17 20 21 18 21 24 28 24 24 24 25 24 24 22 22 22 21 19 20 21 23 20 20 18
20 25 19 15 17 16 19 22 19 21 19 19 20 14 15 15 14 11 15 18 18 28 26 24 25 29 26 24 24 25 26 25 25 24 22 24 21 17 20 20 18 16 17
23 23 23 17 17 20 15 17 16 18 23 22 26 26 24 13 19 14 18 23 23 27 26 29 31 27 26 26 26 26 26 26 25 25 24 24 20 17 18 14 14 13 15
22 24 26 23 17 23 20 17 10 13 17 18 19 17 22 21 20 21 24 26 28 30 29 27 27 27 28 28 27 27 26 26 25 24 24 24 21 18 19 20 14 17 19
15 20 19 20 18 21 22 22 19 13 13 17 24 27 26 24 28 28 26 30 27 27 27 27 28 29 28 28 27 26 26 25 23 23 25 23 20 21 21 20 20 20 18
12 14 20 20 15 15 19 22 24 22 18 15 17 19 21 22 22 21 21 22 23 23 23 22 22 23 23 24 25 25 24 20 20 22 24 27 20 21 19 20 22 22 21
11 12 10 15 16 15 20 22 24 34 32 25 18 17 17 17 17 18 18 18 18 18 18 17 17 18 18 17 17 17 18 19 21 22 27 28 20 22 22 22 23 20 20
8 9 13 13 14 16 18 20 22 22 21 20 17 16 14 14 15 16 17 17 18 19 19 19 19 19 19 18 16 16 14 16 17 20 22 24 21 23 23 21 17 15 15
8 10 13 14 13 14 15 17 18 18 16 14 14 14 13 12 14 14 15 15 17 18 19 19 20 20 19 19 18 17 18 19 18 19 21 22 23 23 19 16 14 13 14
8 10 12 13 14 15 15 16 16 16 15 14 14 13 12 12 12 12 13 14 15 17 18 18 18 18 18 19 18 19 21 22 21 21 20 21 20 18 15 13 12 11 11
9 11 13 14 14 14 14 14 14 14 13 13 13 12 11 11 11 11 11 12 14 15 16 16 17 16 17 17 17 18 19 19 19 19 19 19 17 15 13 12 10 8 9
9 11 11 12 12 13 13 13 13 12 12 13 13 12 11 11 11 11 12 12 13 15 15 16 17 16 16 15 15 16 16 17 18 17 17 15 14 13 12 12 10 9 10
11 13 13 13 12 12 12 12 12 13 13 13 13 12 12 12 12 13 13 14 15 17 18 17 16 16 16 15 16 17 16 15 15 13 12 12 12 12 11 10 10 10 11
11 13 14 13 12 12 13 13 13 13 13 13 13 13 13 14 14 15 15 15 16 16 17 16 16 15 14 14 13 14 15 15 14 13 13 12 11 11 11 10 9 9 9
9 13 13 12 12 14 14 15 15 15 15 15 14 14 15 15 16 16 15 16 16 15 14 14 14 12 12 11 11 11 12 12 13 14 13 12 11 11 11 9 9 9 8
5 9 11 11 12 14 15 17 17 17 16 16 16 16 16 17 17 17 17 17 15 13 12 13 12 11 11 11 11 12 13 13 14 14 12 12 11 10 9 9 9 8 7
9 12 12 12 13 15 17 18 18 18 17 16 17 17 17 17 18 17 17 17 15 13 12 13 12 11 12 12 13 13 13 13 14 13 12 12 10 10 9 9 9 9 7
4 7 9 11 14 15 16 18 18 18 16 17 17 18 18 18 18 17 16 15 15 15 13 13 13 14 14 14 14 13 13 13 13 13 12 12 10 9 9 10 9 9 8
3 1 3 5 8 10 12 14 14 14 14 16 17 18 18 19 18 17 16 16 16 16 16 15 15 16 15 15 14 14 14 14 14 14 13 11 10 10 10 10 9 9 9
4 2 1 3 5 6 7 9 11 12 13 15 17 19 19 18 17 17 17 17 18 18 18 18 18 18 17 16 14 14 14 13 13 13 12 11 11 11 11 10 10 10 10
4 3 2 2 5 6 7 9 10 12 13 15 17 19 18 18 18 18 17 17 18 18 19 20 19 19 18 15 14 14 13 12 11 12 12 11 12 12 12 11 11 11 10
6 6 5 6 8 9 12 13 12 13 14 15 17 18 18 19 19 19 19 18 18 17 19 20 21 19 17 16 15 15 15 15 14 14 13 14 14 14 13 13 13 12 12